Time,TemperatureF,DewpointF,PressureIn,WindDirection,WindDirectionDegrees,WindSpeedMPH,WindSpeedGustMPH,Humidity,HourlyPrecipIn,Conditions,Clouds,dailyrainin,SoftwareType,DateUTC
2013-07-09 00:00:00,58.8,25.8,30.12,SSW,200,0.0,0.0,28,0.00,,---,0.00,VWS V14.01,2013-07-09 06:00:00,
2013-07-09 00:01:00,58.8,25.8,30.12,SSW,200,3.1,3.1,28,0.00,,---,0.00,VWS V14.01,2013-07-09 06:01:00,
2013-07-09 00:02:00,58.8,25.8,30.12,SSW,198,2.7,4.0,28,0.00,,---,0.00,VWS V14.01,2013-07-09 06:02:00,
2013-07-09 00:03:00,58.8,25.8,30.12,SSW,198,2.7,4.0,28,0.00,,---,0.00,VWS V14.01,2013-07-09 06:03:00,
2013-07-09 00:05:00,58.8,25.8,30.12,SSW,198,0.0,4.0,28,0.00,,---,0.00,VWS V14.01,2013-07-09 06:05:00,
2013-07-09 00:06:00,58.8,25.8,30.12,SSW,198,0.0,4.0,28,0.00,,---,0.00,VWS V14.01,2013-07-09 06:06:00,
2013-07-09 00:08:00,58.8,25.8,30.12,SSW,198,0.0,4.0,28,0.00,,---,0.00,VWS V14.01,2013-07-09 06:08:00,
2013-07-09 00:10:00,58.6,25.6,30.12,SSW,198,0.0,4.0,28,0.00,,---,0.00,VWS V14.01,2013-07-09 06:10:00,
2013-07-09 00:11:00,58.5,26.3,30.12,SSW,198,2.7,4.0,29,0.00,,---,0.00,VWS V14.01,2013-07-09 06:11:00,
2013-07-09 00:12:00,58.5,26.3,30.12,SSW,198,2.7,4.0,29,0.00,,---,0.00,VWS V14.01,2013-07-09 06:12:00,
2013-07-09 00:13:00,58.5,26.3,30.12,SSW,198,2.7,4.0,29,0.00,,---,0.00,VWS V14.01,2013-07-09 06:13:00,
2013-07-09 00:16:00,58.3,26.2,30.12,SSW,198,0.0,2.7,29,0.00,,---,0.00,VWS V14.01,2013-07-09 06:16:00,
2013-07-09 00:17:00,58.3,26.2,30.12,SSW,198,0.0,2.7,29,0.00,,---,0.00,VWS V14.01,2013-07-09 06:17:00,
2013-07-09 00:18:00,58.1,26.0,30.12,SSW,198,0.0,2.7,29,0.00,,---,0.00,VWS V14.01,2013-07-09 06:18:00,
2013-07-09 00:22:00,57.9,26.7,30.12,SSW,198,0.0,2.7,30,0.00,,---,0.00,VWS V14.01,2013-07-09 06:22:00,
2013-07-09 00:24:00,57.7,26.5,30.12,SSW,198,0.0,2.7,30,0.00,,---,0.00,VWS V14.01,2013-07-09 06:24:00,
2013-07-09 00:27:00,57.6,27.2,30.12,SSW,198,0.0,2.7,31,0.00,,---,0.00,VWS V14.01,2013-07-09 06:27:00,
2013-07-09 00:29:00,57.6,28.7,30.12,SSW,195,3.1,3.1,33,0.00,,---,0.00,VWS V14.01,2013-07-09 06:29:00,
2013-07-09 00:32:00,57.7,28.9,30.12,SSW,195,0.0,2.7,33,0.00,,---,0.00,VWS V14.01,2013-07-09 06:32:00,
2013-07-09 00:33:00,57.9,29.0,30.12,SSW,195,0.0,2.7,33,0.00,,---,0.00,VWS V14.01,2013-07-09 06:33:00,
2013-07-09 00:34:00,57.9,29.0,30.12,SSW,195,0.0,2.7,33,0.00,,---,0.00,VWS V14.01,2013-07-09 06:34:00,
2013-07-09 00:37:00,57.9,29.0,30.12,SSW,195,2.7,2.7,33,0.00,,---,0.00,VWS V14.01,2013-07-09 06:37:00,
2013-07-09 00:38:00,57.9,29.0,30.12,SSW,195,2.7,3.1,33,0.00,,---,0.00,VWS V14.01,2013-07-09 06:38:00,
2013-07-09 00:39:00,57.9,29.0,30.12,SSW,195,0.0,3.1,33,0.00,,---,0.00,VWS V14.01,2013-07-09 06:39:00,
2013-07-09 00:40:00,57.9,29.0,30.12,SSW,195,0.0,3.1,33,0.00,,---,0.00,VWS V14.01,2013-07-09 06:40:00,
2013-07-09 00:42:00,57.7,28.9,30.12,SSW,193,2.7,3.6,33,0.00,,---,0.00,VWS V14.01,2013-07-09 06:42:00,
2013-07-09 00:43:00,57.7,28.9,30.12,South,191,2.7,3.6,33,0.00,,---,0.00,VWS V14.01,2013-07-09 06:43:00,
2013-07-09 00:44:00,57.6,28.7,30.12,South,188,3.6,3.6,33,0.00,,---,0.00,VWS V14.01,2013-07-09 06:44:00,
2013-07-09 00:45:00,57.4,28.5,30.12,South,188,3.6,3.6,33,0.00,,---,0.00,VWS V14.01,2013-07-09 06:45:00,
2013-07-09 00:47:00,57.0,29.0,30.12,South,190,3.1,3.6,34,0.00,,---,0.00,VWS V14.01,2013-07-09 06:47:00,
2013-07-09 00:48:00,57.0,29.0,30.12,South,190,2.7,3.6,34,0.00,,---,0.00,VWS V14.01,2013-07-09 06:48:00,
2013-07-09 00:49:00,56.8,28.8,30.12,South,183,3.1,3.6,34,0.00,,---,0.00,VWS V14.01,2013-07-09 06:49:00,
2013-07-09 00:50:00,56.7,29.3,30.12,South,180,3.1,3.6,35,0.00,,---,0.00,VWS V14.01,2013-07-09 06:50:00,
2013-07-09 00:52:00,56.7,29.3,30.12,SSW,197,2.7,3.6,35,0.00,,---,0.00,VWS V14.01,2013-07-09 06:52:00,
2013-07-09 00:53:00,56.7,29.3,30.12,SSW,197,2.7,3.6,35,0.00,,---,0.00,VWS V14.01,2013-07-09 06:53:00,
2013-07-09 00:54:00,56.5,29.2,30.12,SSW,197,0.0,3.6,35,0.00,,---,0.00,VWS V14.01,2013-07-09 06:54:00,
2013-07-09 00:55:00,56.5,29.2,30.12,SSW,197,0.0,3.6,35,0.00,,---,0.00,VWS V14.01,2013-07-09 06:55:00,
2013-07-09 00:58:00,56.7,29.3,30.12,SSW,197,3.1,3.6,35,0.00,,---,0.00,VWS V14.01,2013-07-09 06:58:00,
2013-07-09 00:59:00,56.7,30.0,30.12,SSW,199,2.7,3.6,36,0.00,,---,0.00,VWS V14.01,2013-07-09 06:59:00,
2013-07-09 01:00:00,56.8,30.2,30.12,SSW,199,2.7,3.1,36,0.00,,---,0.00,VWS V14.01,2013-07-09 07:00:00,
2013-07-09 01:03:00,57.2,29.8,30.12,SSW,197,0.0,3.1,35,0.00,,---,0.00,VWS V14.01,2013-07-09 07:03:00,
2013-07-09 01:04:00,57.2,29.8,30.12,SSW,197,0.0,3.1,35,0.00,,---,0.00,VWS V14.01,2013-07-09 07:04:00,
2013-07-09 01:05:00,57.2,29.8,30.12,SSW,197,0.0,3.1,35,0.00,,---,0.00,VWS V14.01,2013-07-09 07:05:00,
2013-07-09 01:08:00,57.0,29.7,30.12,SSW,197,0.0,3.1,35,0.00,,---,0.00,VWS V14.01,2013-07-09 07:08:00,
2013-07-09 01:09:00,57.0,29.7,30.12,SSW,197,0.0,3.1,35,0.00,,---,0.00,VWS V14.01,2013-07-09 07:09:00,
2013-07-09 01:10:00,57.0,30.4,30.12,SSW,210,3.1,4.0,36,0.00,,---,0.00,VWS V14.01,2013-07-09 07:10:00,
2013-07-09 01:11:00,57.0,30.4,30.12,SSW,211,2.7,4.0,36,0.00,,---,0.00,VWS V14.01,2013-07-09 07:11:00,
2013-07-09 01:14:00,57.2,31.2,30.12,North,0,0.0,4.0,37,0.00,,---,0.00,VWS V14.01,2013-07-09 07:14:00,
2013-07-09 01:15:00,57.4,30.7,30.12,North,0,0.0,4.0,36,0.00,,---,0.00,VWS V14.01,2013-07-09 07:15:00,
2013-07-09 01:16:00,57.4,30.7,30.12,North,0,0.0,0.0,36,0.00,,---,0.00,VWS V14.01,2013-07-09 07:16:00,
2013-07-09 01:19:00,57.0,30.4,30.12,North,0,0.0,0.0,36,0.00,,---,0.00,VWS V14.01,2013-07-09 07:19:00,
2013-07-09 01:20:00,56.8,30.2,30.12,North,0,0.0,0.0,36,0.00,,---,0.00,VWS V14.01,2013-07-09 07:20:00,
2013-07-09 01:21:00,56.7,30.0,30.12,North,0,0.0,0.0,36,0.00,,---,0.00,VWS V14.01,2013-07-09 07:21:00,
2013-07-09 01:24:00,56.3,29.7,30.12,East,89,0.0,0.0,36,0.00,,---,0.00,VWS V14.01,2013-07-09 07:24:00,
2013-07-09 01:25:00,55.9,29.4,30.12,East,89,0.0,0.0,36,0.00,,---,0.00,VWS V14.01,2013-07-09 07:25:00,
2013-07-09 01:26:00,55.9,29.4,30.12,East,89,0.0,0.0,36,0.00,,---,0.00,VWS V14.01,2013-07-09 07:26:00,
2013-07-09 01:29:00,55.2,28.8,30.12,East,89,0.0,0.0,36,0.00,,---,0.00,VWS V14.01,2013-07-09 07:29:00,
2013-07-09 01:30:00,55.0,29.3,30.12,East,89,0.0,0.0,37,0.00,,---,0.00,VWS V14.01,2013-07-09 07:30:00,
2013-07-09 01:31:00,55.0,29.3,30.12,East,89,0.0,0.0,37,0.00,,---,0.00,VWS V14.01,2013-07-09 07:31:00,
2013-07-09 01:35:00,54.5,29.4,30.12,South,175,2.2,2.2,38,0.00,,---,0.00,VWS V14.01,2013-07-09 07:35:00,
2013-07-09 01:36:00,54.5,29.4,30.12,South,175,0.0,2.2,38,0.00,,---,0.00,VWS V14.01,2013-07-09 07:36:00,
2013-07-09 01:37:00,54.5,29.4,30.12,South,175,0.0,2.2,38,0.00,,---,0.00,VWS V14.01,2013-07-09 07:37:00,
2013-07-09 01:40:00,54.5,29.4,30.12,South,175,0.0,2.2,38,0.00,,---,0.00,VWS V14.01,2013-07-09 07:40:00,
2013-07-09 01:41:00,54.5,30.1,30.12,South,175,0.0,2.2,39,0.00,,---,0.00,VWS V14.01,2013-07-09 07:41:00,
2013-07-09 01:42:00,54.5,30.1,30.12,South,175,0.0,2.2,39,0.00,,---,0.00,VWS V14.01,2013-07-09 07:42:00,
2013-07-09 01:45:00,54.5,30.7,30.12,South,191,2.7,3.6,40,0.00,,---,0.00,VWS V14.01,2013-07-09 07:45:00,
2013-07-09 01:46:00,54.5,30.7,30.12,South,191,2.7,3.6,40,0.00,,---,0.00,VWS V14.01,2013-07-09 07:46:00,
2013-07-09 01:47:00,54.7,30.9,30.12,South,191,2.2,3.6,40,0.00,,---,0.00,VWS V14.01,2013-07-09 07:47:00,
2013-07-09 01:52:00,54.7,30.9,30.12,South,188,0.0,3.6,40,0.00,,---,0.00,VWS V14.01,2013-07-09 07:52:00,
2013-07-09 01:53:00,54.7,30.9,30.12,South,188,2.2,3.6,40,0.00,,---,0.00,VWS V14.01,2013-07-09 07:53:00,
2013-07-09 01:58:00,54.3,30.5,30.12,South,187,0.0,3.6,40,0.00,,---,0.00,VWS V14.01,2013-07-09 07:58:00,
2013-07-09 02:03:00,54.3,31.1,30.12,South,185,0.0,2.7,41,0.00,,---,0.00,VWS V14.01,2013-07-09 08:03:00,
2013-07-09 02:08:00,54.1,31.6,30.12,SSW,196,2.2,2.7,42,0.00,,---,0.00,VWS V14.01,2013-07-09 08:08:00,
2013-07-09 02:13:00,53.8,31.8,30.12,SSW,196,2.2,2.7,43,0.00,,---,0.00,VWS V14.01,2013-07-09 08:13:00,
2013-07-09 02:14:00,53.8,31.8,30.12,SSW,195,2.7,2.7,43,0.00,,---,0.00,VWS V14.01,2013-07-09 08:14:00,
2013-07-09 02:18:00,53.6,31.7,30.12,SSW,195,0.0,2.7,43,0.00,,---,0.00,VWS V14.01,2013-07-09 08:18:00,
2013-07-09 02:19:00,53.6,31.7,30.12,SSW,195,0.0,2.7,43,0.00,,---,0.00,VWS V14.01,2013-07-09 08:19:00,
2013-07-09 02:20:00,53.6,31.1,30.12,SSW,195,0.0,2.7,42,0.00,,---,0.00,VWS V14.01,2013-07-09 08:20:00,
2013-07-09 02:23:00,53.2,31.3,30.12,South,173,2.7,2.7,43,0.00,,---,0.00,VWS V14.01,2013-07-09 08:23:00,
2013-07-09 02:24:00,53.2,31.3,30.12,South,172,2.7,2.7,43,0.00,,---,0.00,VWS V14.01,2013-07-09 08:24:00,
2013-07-09 02:25:00,53.1,31.2,30.12,South,172,2.2,2.7,43,0.00,,---,0.00,VWS V14.01,2013-07-09 08:25:00,
2013-07-09 02:28:00,52.5,30.7,30.12,South,172,0.0,2.7,43,0.00,,---,0.00,VWS V14.01,2013-07-09 08:28:00,
2013-07-09 02:29:00,52.3,30.5,30.12,South,172,0.0,2.7,43,0.00,,---,0.00,VWS V14.01,2013-07-09 08:29:00,
2013-07-09 02:30:00,52.2,30.4,30.12,South,172,2.2,2.2,43,0.00,,---,0.00,VWS V14.01,2013-07-09 08:30:00,
2013-07-09 02:34:00,51.6,31.0,30.12,SSW,197,0.0,4.0,45,0.00,,---,0.00,VWS V14.01,2013-07-09 08:34:00,
2013-07-09 02:35:00,51.6,31.0,30.12,SSW,198,2.7,4.0,45,0.00,,---,0.00,VWS V14.01,2013-07-09 08:35:00,
2013-07-09 02:36:00,51.6,31.5,30.12,SSW,200,3.6,4.0,46,0.00,,---,0.00,VWS V14.01,2013-07-09 08:36:00,
2013-07-09 02:39:00,51.6,32.1,30.12,SSW,199,3.6,5.8,47,0.00,,---,0.00,VWS V14.01,2013-07-09 08:39:00,
2013-07-09 02:40:00,51.6,32.1,30.12,SSW,206,4.0,5.8,47,0.00,,---,0.00,VWS V14.01,2013-07-09 08:40:00,
2013-07-09 02:41:00,51.6,32.1,30.12,SSW,198,3.6,5.8,47,0.00,,---,0.00,VWS V14.01,2013-07-09 08:41:00,
2013-07-09 02:44:00,51.6,32.1,30.12,SSW,207,2.2,5.8,47,0.00,,---,0.00,VWS V14.01,2013-07-09 08:44:00,
2013-07-09 02:45:00,51.6,32.1,30.12,SSW,207,0.0,5.8,47,0.00,,---,0.00,VWS V14.01,2013-07-09 08:45:00,
2013-07-09 02:46:00,51.4,31.9,30.12,SSW,207,2.2,2.2,47,0.00,,---,0.00,VWS V14.01,2013-07-09 08:46:00,
2013-07-09 02:49:00,51.3,31.7,30.12,SSW,207,2.7,2.7,47,0.00,,---,0.00,VWS V14.01,2013-07-09 08:49:00,
2013-07-09 02:50:00,51.3,31.7,30.12,SSW,207,0.0,2.7,47,0.00,,---,0.00,VWS V14.01,2013-07-09 08:50:00,
2013-07-09 02:51:00,51.3,31.7,30.12,SSW,207,0.0,2.7,47,0.00,,---,0.00,VWS V14.01,2013-07-09 08:51:00,
2013-07-09 02:54:00,51.3,31.7,30.12,SSW,196,2.7,3.6,47,0.00,,---,0.00,VWS V14.01,2013-07-09 08:54:00,
2013-07-09 02:55:00,51.3,31.7,30.12,SSW,196,2.7,3.6,47,0.00,,---,0.00,VWS V14.01,2013-07-09 08:55:00,
2013-07-09 02:56:00,51.3,31.7,30.12,SSW,195,2.7,3.6,47,0.00,,---,0.00,VWS V14.01,2013-07-09 08:56:00,
2013-07-09 02:57:00,51.3,31.7,30.12,SSW,195,3.1,3.6,47,0.00,,---,0.00,VWS V14.01,2013-07-09 08:57:00,
2013-07-09 02:59:00,51.6,32.1,30.12,SSW,195,3.1,4.0,47,0.00,,---,0.00,VWS V14.01,2013-07-09 08:59:00,
2013-07-09 03:00:00,51.6,32.1,30.12,SSW,195,3.6,4.0,47,0.00,,---,0.00,VWS V14.01,2013-07-09 09:00:00,
2013-07-09 03:01:00,51.6,32.1,30.12,SSW,202,2.7,3.6,47,0.00,,---,0.00,VWS V14.01,2013-07-09 09:01:00,
2013-07-09 03:02:00,51.6,32.1,30.12,SSW,202,2.7,3.6,47,0.00,,---,0.00,VWS V14.01,2013-07-09 09:02:00,
2013-07-09 03:05:00,51.8,31.7,30.12,SSW,198,3.6,5.4,46,0.00,,---,0.00,VWS V14.01,2013-07-09 09:05:00,
2013-07-09 03:06:00,51.8,31.7,30.12,SSW,198,3.6,5.4,46,0.00,,---,0.00,VWS V14.01,2013-07-09 09:06:00,
2013-07-09 03:07:00,52.0,31.9,30.12,SSW,192,3.6,5.4,46,0.00,,---,0.00,VWS V14.01,2013-07-09 09:07:00,
2013-07-09 03:10:00,52.2,31.5,30.12,SSW,194,3.6,5.4,45,0.00,,---,0.00,VWS V14.01,2013-07-09 09:10:00,
2013-07-09 03:11:00,52.3,31.6,30.12,SSW,192,4.9,5.4,45,0.00,,---,0.00,VWS V14.01,2013-07-09 09:11:00,
2013-07-09 03:12:00,52.3,31.1,30.12,South,189,3.6,5.4,44,0.00,,---,0.00,VWS V14.01,2013-07-09 09:12:00,
2013-07-09 03:16:00,52.5,31.2,30.12,South,185,2.7,2.7,44,0.00,,---,0.00,VWS V14.01,2013-07-09 09:16:00,
2013-07-09 03:17:00,52.5,31.2,30.12,South,185,2.2,2.7,44,0.00,,---,0.00,VWS V14.01,2013-07-09 09:17:00,
2013-07-09 03:21:00,52.3,30.5,30.12,South,185,0.0,3.1,43,0.00,,---,0.00,VWS V14.01,2013-07-09 09:21:00,
2013-07-09 03:22:00,52.2,30.4,30.12,South,185,0.0,3.1,43,0.00,,---,0.00,VWS V14.01,2013-07-09 09:22:00,
2013-07-09 03:23:00,52.2,30.4,30.12,South,185,0.0,3.1,43,0.00,,---,0.00,VWS V14.01,2013-07-09 09:23:00,
2013-07-09 03:26:00,52.0,30.8,30.12,South,185,3.1,3.6,44,0.00,,---,0.00,VWS V14.01,2013-07-09 09:26:00,
2013-07-09 03:27:00,52.0,30.8,30.12,South,185,2.7,4.0,44,0.00,,---,0.00,VWS V14.01,2013-07-09 09:27:00,
2013-07-09 03:28:00,52.0,30.8,30.12,South,191,3.6,4.0,44,0.00,,---,0.00,VWS V14.01,2013-07-09 09:28:00,
2013-07-09 03:31:00,52.0,30.8,30.12,SSW,194,2.7,3.1,44,0.00,,---,0.00,VWS V14.01,2013-07-09 09:31:00,
2013-07-09 03:32:00,52.0,30.8,30.12,SSW,194,3.1,3.1,44,0.00,,---,0.00,VWS V14.01,2013-07-09 09:32:00,
2013-07-09 03:33:00,52.0,30.8,30.12,SSW,196,3.6,3.6,44,0.00,,---,0.00,VWS V14.01,2013-07-09 09:33:00,
2013-07-09 03:36:00,52.3,31.1,30.12,South,191,3.6,4.9,44,0.00,,---,0.00,VWS V14.01,2013-07-09 09:36:00,
2013-07-09 03:37:00,52.3,31.1,30.12,South,191,3.1,4.9,44,0.00,,---,0.00,VWS V14.01,2013-07-09 09:37:00,
2013-07-09 03:38:00,52.5,30.7,30.12,South,191,3.1,4.9,43,0.00,,---,0.00,VWS V14.01,2013-07-09 09:38:00,
2013-07-09 03:39:00,52.5,30.7,30.12,South,190,3.1,4.9,43,0.00,,---,0.00,VWS V14.01,2013-07-09 09:39:00,
2013-07-09 03:41:00,52.7,30.9,30.12,South,191,2.7,4.9,43,0.00,,---,0.00,VWS V14.01,2013-07-09 09:41:00,
2013-07-09 03:42:00,52.9,31.0,30.12,South,191,3.1,4.9,43,0.00,,---,0.00,VWS V14.01,2013-07-09 09:42:00,
2013-07-09 03:43:00,52.9,31.0,30.12,SSW,199,3.6,4.9,43,0.00,,---,0.00,VWS V14.01,2013-07-09 09:43:00,
2013-07-09 03:44:00,52.9,31.0,30.12,SSW,199,3.6,4.9,43,0.00,,---,0.00,VWS V14.01,2013-07-09 09:44:00,
2013-07-09 03:47:00,53.1,30.6,30.12,SSW,196,4.0,4.0,42,0.00,,---,0.00,VWS V14.01,2013-07-09 09:47:00,
2013-07-09 03:48:00,53.1,30.6,30.12,SSW,195,3.1,4.0,42,0.00,,---,0.00,VWS V14.01,2013-07-09 09:48:00,
2013-07-09 03:49:00,53.1,30.6,30.12,SSW,200,4.0,4.0,42,0.00,,---,0.00,VWS V14.01,2013-07-09 09:49:00,
2013-07-09 03:52:00,53.4,30.9,30.12,SSW,194,2.7,5.4,42,0.00,,---,0.00,VWS V14.01,2013-07-09 09:52:00,
2013-07-09 03:53:00,53.4,30.9,30.12,SSW,195,2.7,5.4,42,0.00,,---,0.00,VWS V14.01,2013-07-09 09:53:00,
2013-07-09 03:54:00,53.6,30.5,30.12,SSW,198,2.7,5.4,41,0.00,,---,0.00,VWS V14.01,2013-07-09 09:54:00,
2013-07-09 03:58:00,53.4,30.3,30.12,SSW,198,2.2,5.4,41,0.00,,---,0.00,VWS V14.01,2013-07-09 09:58:00,
2013-07-09 03:59:00,53.2,30.2,30.12,SSW,198,0.0,5.4,41,0.00,,---,0.00,VWS V14.01,2013-07-09 09:59:00,
2013-07-09 04:00:00,53.1,30.0,30.12,South,183,4.0,4.0,41,0.00,,---,0.00,VWS V14.01,2013-07-09 10:00:00,
2013-07-09 04:03:00,53.1,30.6,30.12,SSW,197,4.0,5.4,42,0.00,,---,0.00,VWS V14.01,2013-07-09 10:03:00,
2013-07-09 04:04:00,53.1,30.6,30.12,SSW,196,3.6,5.4,42,0.00,,---,0.00,VWS V14.01,2013-07-09 10:04:00,
2013-07-09 04:05:00,53.1,30.6,30.12,SSW,199,2.2,5.4,42,0.00,,---,0.00,VWS V14.01,2013-07-09 10:05:00,
2013-07-09 04:08:00,53.2,30.8,30.12,SSW,194,0.0,5.4,42,0.00,,---,0.00,VWS V14.01,2013-07-09 10:08:00,
2013-07-09 04:09:00,53.2,30.8,30.12,SSW,194,3.1,5.4,42,0.00,,---,0.00,VWS V14.01,2013-07-09 10:09:00,
2013-07-09 04:10:00,53.2,30.8,30.12,SSW,194,2.7,5.4,42,0.00,,---,0.00,VWS V14.01,2013-07-09 10:10:00,
2013-07-09 04:13:00,53.1,30.6,30.12,SSW,194,0.0,5.4,42,0.00,,---,0.00,VWS V14.01,2013-07-09 10:13:00,
2013-07-09 04:14:00,53.1,30.6,30.12,SSW,194,0.0,5.4,42,0.00,,---,0.00,VWS V14.01,2013-07-09 10:14:00,
2013-07-09 04:15:00,53.1,30.6,30.12,SSW,194,0.0,5.4,42,0.00,,---,0.00,VWS V14.01,2013-07-09 10:15:00,
2013-07-09 04:18:00,52.7,30.3,30.12,SSW,194,2.7,3.6,42,0.00,,---,0.00,VWS V14.01,2013-07-09 10:18:00,
2013-07-09 04:19:00,52.5,30.1,30.12,SSW,194,2.7,3.6,42,0.00,,---,0.00,VWS V14.01,2013-07-09 10:19:00,
2013-07-09 04:20:00,52.5,30.1,30.12,SSW,194,2.7,3.6,42,0.00,,---,0.00,VWS V14.01,2013-07-09 10:20:00,
2013-07-09 04:24:00,52.3,30.5,30.12,SSW,197,4.0,4.5,43,0.00,,---,0.00,VWS V14.01,2013-07-09 10:24:00,
2013-07-09 04:25:00,52.3,30.5,30.12,SSW,198,3.6,4.5,43,0.00,,---,0.00,VWS V14.01,2013-07-09 10:25:00,
2013-07-09 04:29:00,52.3,30.5,30.12,SSW,197,2.7,4.5,43,0.00,,---,0.00,VWS V14.01,2013-07-09 10:29:00,
2013-07-09 04:30:00,52.3,30.5,30.12,SSW,197,3.1,4.5,43,0.00,,---,0.00,VWS V14.01,2013-07-09 10:30:00,
2013-07-09 04:31:00,52.3,30.5,30.12,SSW,195,3.1,3.1,43,0.00,,---,0.00,VWS V14.01,2013-07-09 10:31:00,
2013-07-09 04:34:00,52.5,30.7,30.12,SSW,195,3.6,3.6,43,0.00,,---,0.00,VWS V14.01,2013-07-09 10:34:00,
2013-07-09 04:35:00,52.5,30.7,30.12,SSW,195,2.7,3.6,43,0.00,,---,0.00,VWS V14.01,2013-07-09 10:35:00,
2013-07-09 04:36:00,52.5,30.7,30.12,SSW,194,3.6,3.6,43,0.00,,---,0.00,VWS V14.01,2013-07-09 10:36:00,
2013-07-09 04:39:00,52.7,30.3,30.12,SSW,196,3.6,4.9,42,0.00,,---,0.00,VWS V14.01,2013-07-09 10:39:00,
2013-07-09 04:40:00,52.7,30.3,30.12,SSW,196,2.7,4.9,42,0.00,,---,0.00,VWS V14.01,2013-07-09 10:40:00,
2013-07-09 04:41:00,52.7,30.3,30.12,SSW,196,3.6,4.9,42,0.00,,---,0.00,VWS V14.01,2013-07-09 10:41:00,
2013-07-09 04:45:00,52.7,30.3,30.12,South,190,2.7,4.9,42,0.00,,---,0.00,VWS V14.01,2013-07-09 10:45:00,
2013-07-09 04:46:00,52.7,30.3,30.12,South,187,2.2,2.7,42,0.00,,---,0.00,VWS V14.01,2013-07-09 10:46:00,
2013-07-09 04:50:00,52.3,30.5,30.09,South,182,2.2,2.7,43,0.00,,---,0.00,VWS V14.01,2013-07-09 10:50:00,
2013-07-09 04:51:00,52.3,30.5,30.09,South,182,2.2,2.7,43,0.00,,---,0.00,VWS V14.01,2013-07-09 10:51:00,
2013-07-09 04:52:00,52.2,30.4,30.09,South,182,2.2,2.7,43,0.00,,---,0.00,VWS V14.01,2013-07-09 10:52:00,
2013-07-09 04:55:00,51.8,30.0,30.09,South,178,2.7,2.7,43,0.00,,---,0.00,VWS V14.01,2013-07-09 10:55:00,
2013-07-09 04:57:00,51.6,31.0,30.09,South,177,2.2,2.7,45,0.00,,---,0.00,VWS V14.01,2013-07-09 10:57:00,
2013-07-09 05:00:00,51.3,31.2,30.09,South,180,2.7,2.7,46,0.00,,---,0.00,VWS V14.01,2013-07-09 11:00:00,
2013-07-09 05:01:00,51.1,31.0,30.09,South,180,2.2,2.7,46,0.00,,---,0.00,VWS V14.01,2013-07-09 11:01:00,
2013-07-09 05:02:00,50.9,30.9,30.09,South,180,2.2,2.7,46,0.00,,---,0.00,VWS V14.01,2013-07-09 11:02:00,
2013-07-09 05:03:00,50.9,30.9,30.12,South,180,2.7,2.7,46,0.00,,---,0.00,VWS V14.01,2013-07-09 11:03:00,
2013-07-09 05:05:00,50.9,31.4,30.12,South,180,2.2,3.6,47,0.00,,---,0.00,VWS V14.01,2013-07-09 11:05:00,
2013-07-09 05:06:00,50.7,31.2,30.12,South,180,0.0,3.6,47,0.00,,---,0.00,VWS V14.01,2013-07-09 11:06:00,
2013-07-09 05:07:00,50.7,31.2,30.12,South,180,0.0,3.6,47,0.00,,---,0.00,VWS V14.01,2013-07-09 11:07:00,
2013-07-09 05:08:00,50.7,31.2,30.12,South,181,2.7,3.6,47,0.00,,---,0.00,VWS V14.01,2013-07-09 11:08:00,
2013-07-09 05:11:00,50.7,31.2,30.12,South,183,0.0,3.6,47,0.00,,---,0.00,VWS V14.01,2013-07-09 11:11:00,
2013-07-09 05:12:00,50.7,31.2,30.12,South,179,2.2,3.6,47,0.00,,---,0.00,VWS V14.01,2013-07-09 11:12:00,
2013-07-09 05:13:00,50.7,31.2,30.12,South,179,2.2,3.6,47,0.00,,---,0.00,VWS V14.01,2013-07-09 11:13:00,
2013-07-09 05:14:00,50.7,31.2,30.12,South,175,2.2,3.6,47,0.00,,---,0.00,VWS V14.01,2013-07-09 11:14:00,
2013-07-09 05:16:00,50.7,31.2,30.12,South,169,2.2,2.7,47,0.00,,---,0.00,VWS V14.01,2013-07-09 11:16:00,
2013-07-09 05:17:00,50.5,31.1,30.12,South,169,0.0,2.7,47,0.00,,---,0.00,VWS V14.01,2013-07-09 11:17:00,
2013-07-09 05:18:00,50.5,31.1,30.12,South,169,0.0,2.7,47,0.00,,---,0.00,VWS V14.01,2013-07-09 11:18:00,
2013-07-09 05:19:00,50.5,31.1,30.12,South,169,0.0,2.7,47,0.00,,---,0.00,VWS V14.01,2013-07-09 11:19:00,
2013-07-09 05:21:00,50.5,31.1,30.12,South,169,2.7,2.7,47,0.00,,---,0.00,VWS V14.01,2013-07-09 11:21:00,
2013-07-09 05:23:00,50.5,31.1,30.12,South,179,0.0,3.1,47,0.00,,---,0.00,VWS V14.01,2013-07-09 11:23:00,
2013-07-09 05:24:00,50.5,31.1,30.12,South,189,3.1,3.1,47,0.00,,---,0.00,VWS V14.01,2013-07-09 11:24:00,
2013-07-09 05:26:00,50.5,31.1,30.12,South,181,3.1,3.6,47,0.00,,---,0.00,VWS V14.01,2013-07-09 11:26:00,
2013-07-09 05:28:00,50.7,31.2,30.12,SSW,207,3.1,3.6,47,0.00,,---,0.00,VWS V14.01,2013-07-09 11:28:00,
2013-07-09 05:29:00,50.7,31.2,30.12,South,185,3.1,4.0,47,0.00,,---,0.00,VWS V14.01,2013-07-09 11:29:00,
2013-07-09 05:31:00,51.1,31.6,30.12,South,185,0.0,0.0,47,0.00,,---,0.00,VWS V14.01,2013-07-09 11:31:00,
2013-07-09 05:32:00,51.1,31.0,30.12,South,185,2.2,2.2,46,0.00,,---,0.00,VWS V14.01,2013-07-09 11:32:00,
2013-07-09 05:33:00,51.1,31.0,30.12,South,187,2.2,2.7,46,0.00,,---,0.00,VWS V14.01,2013-07-09 11:33:00,
2013-07-09 05:34:00,51.3,31.2,30.12,South,187,2.7,3.6,46,0.00,,---,0.00,VWS V14.01,2013-07-09 11:34:00,
2013-07-09 05:37:00,51.3,31.2,30.12,South,176,3.6,4.0,46,0.00,,---,0.00,VWS V14.01,2013-07-09 11:37:00,
2013-07-09 05:38:00,51.4,31.4,30.12,South,172,2.7,4.0,46,0.00,,---,0.00,VWS V14.01,2013-07-09 11:38:00,
2013-07-09 05:39:00,51.4,31.4,30.12,South,172,2.7,4.0,46,0.00,,---,0.00,VWS V14.01,2013-07-09 11:39:00,
2013-07-09 05:42:00,51.6,30.4,30.12,South,191,4.0,4.9,44,0.00,,---,0.00,VWS V14.01,2013-07-09 11:42:00,
2013-07-09 05:43:00,51.8,30.6,30.12,South,184,3.6,4.9,44,0.00,,---,0.00,VWS V14.01,2013-07-09 11:43:00,
2013-07-09 05:44:00,51.8,30.6,30.12,SSW,192,3.1,4.9,44,0.00,,---,0.00,VWS V14.01,2013-07-09 11:44:00,
2013-07-09 05:45:00,52.0,30.2,30.12,South,184,2.7,3.6,43,0.00,,---,0.00,VWS V14.01,2013-07-09 11:45:00,
2013-07-09 05:47:00,52.2,30.4,30.12,South,173,2.7,3.6,43,0.00,,---,0.00,VWS V14.01,2013-07-09 11:47:00,
2013-07-09 05:48:00,52.2,30.4,30.12,South,181,2.7,3.6,43,0.00,,---,0.00,VWS V14.01,2013-07-09 11:48:00,
2013-07-09 05:49:00,52.2,30.4,30.12,South,186,2.7,3.6,43,0.00,,---,0.00,VWS V14.01,2013-07-09 11:49:00,
2013-07-09 05:51:00,52.3,30.0,30.12,SSW,192,2.7,4.0,42,0.00,,---,0.00,VWS V14.01,2013-07-09 11:51:00,
2013-07-09 05:53:00,52.3,30.0,30.12,SSW,192,3.1,4.0,42,0.00,,---,0.00,VWS V14.01,2013-07-09 11:53:00,
2013-07-09 05:54:00,52.3,30.0,30.12,South,187,3.1,4.5,42,0.00,,---,0.00,VWS V14.01,2013-07-09 11:54:00,
2013-07-09 05:56:00,52.3,30.0,30.12,South,177,2.7,4.5,42,0.00,,---,0.00,VWS V14.01,2013-07-09 11:56:00,
2013-07-09 05:58:00,52.3,30.0,30.12,South,186,2.7,4.5,42,0.00,,---,0.00,VWS V14.01,2013-07-09 11:58:00,
2013-07-09 05:59:00,52.3,30.0,30.12,SSW,197,4.0,5.4,42,0.00,,---,0.00,VWS V14.01,2013-07-09 11:59:00,
2013-07-09 06:01:00,52.5,30.1,30.12,SSW,192,3.6,4.0,42,0.00,,---,0.00,VWS V14.01,2013-07-09 12:01:00,
2013-07-09 06:03:00,52.5,30.1,30.09,South,191,2.7,4.0,42,0.00,,---,0.00,VWS V14.01,2013-07-09 12:03:00,
2013-07-09 06:04:00,52.5,30.1,30.09,South,191,2.7,4.0,42,0.00,,---,0.00,VWS V14.01,2013-07-09 12:04:00,
2013-07-09 06:05:00,52.5,30.1,30.09,South,191,2.2,4.0,42,0.00,,---,0.00,VWS V14.01,2013-07-09 12:05:00,
2013-07-09 06:06:00,52.5,30.1,30.09,South,191,2.7,4.0,42,0.00,,---,0.00,VWS V14.01,2013-07-09 12:06:00,
2013-07-09 06:08:00,52.5,30.1,30.09,South,191,0.0,4.0,42,0.00,,---,0.00,VWS V14.01,2013-07-09 12:08:00,
2013-07-09 06:09:00,52.5,30.1,30.09,South,191,0.0,4.0,42,0.00,,---,0.00,VWS V14.01,2013-07-09 12:09:00,
2013-07-09 06:10:00,52.5,30.1,30.09,South,191,0.0,4.0,42,0.00,,---,0.00,VWS V14.01,2013-07-09 12:10:00,
2013-07-09 06:11:00,52.3,30.0,30.09,South,191,0.0,4.0,42,0.00,,---,0.00,VWS V14.01,2013-07-09 12:11:00,
2013-07-09 06:13:00,52.3,30.0,30.09,South,191,0.0,4.0,42,0.00,,---,0.00,VWS V14.01,2013-07-09 12:13:00,
2013-07-09 06:14:00,52.3,30.0,30.09,South,191,0.0,4.0,42,0.00,,---,0.00,VWS V14.01,2013-07-09 12:14:00,
2013-07-09 06:15:00,52.3,30.0,30.09,South,191,0.0,4.0,42,0.00,,---,0.00,VWS V14.01,2013-07-09 12:15:00,
2013-07-09 06:17:00,52.2,29.8,30.09,South,191,0.0,0.0,42,0.00,,---,0.00,VWS V14.01,2013-07-09 12:17:00,
2013-07-09 06:19:00,52.2,29.8,30.09,South,191,0.0,0.0,42,0.00,,---,0.00,VWS V14.01,2013-07-09 12:19:00,
2013-07-09 06:20:00,52.2,30.4,30.09,South,191,2.7,2.7,43,0.00,,---,0.00,VWS V14.01,2013-07-09 12:20:00,
2013-07-09 06:22:00,52.2,30.4,30.09,South,190,2.7,3.6,43,0.00,,---,0.00,VWS V14.01,2013-07-09 12:22:00,
2013-07-09 06:24:00,52.3,30.5,30.09,South,191,3.6,3.6,43,0.00,,---,0.00,VWS V14.01,2013-07-09 12:24:00,
2013-07-09 06:25:00,52.3,30.0,30.09,South,191,3.6,4.0,42,0.00,,---,0.00,VWS V14.01,2013-07-09 12:25:00,
2013-07-09 06:27:00,52.5,30.1,30.09,South,190,3.6,4.0,42,0.00,,---,0.00,VWS V14.01,2013-07-09 12:27:00,
2013-07-09 06:29:00,52.7,30.3,30.09,SSW,195,4.0,4.9,42,0.00,,---,0.00,VWS V14.01,2013-07-09 12:29:00,
2013-07-09 06:30:00,53.1,30.0,30.09,SSW,197,4.9,5.8,41,0.00,,---,0.00,VWS V14.01,2013-07-09 12:30:00,
2013-07-09 06:32:00,54.0,30.2,30.12,SSW,195,5.4,5.4,40,0.00,,---,0.00,VWS V14.01,2013-07-09 12:32:00,
2013-07-09 06:34:00,54.7,30.2,30.12,SSW,192,4.0,5.4,39,0.00,,---,0.00,VWS V14.01,2013-07-09 12:34:00,
2013-07-09 06:36:00,55.2,30.1,30.12,SSW,194,3.6,5.4,38,0.00,,---,0.00,VWS V14.01,2013-07-09 12:36:00,
2013-07-09 06:37:00,55.8,29.9,30.12,SSW,195,4.0,5.4,37,0.00,,---,0.00,VWS V14.01,2013-07-09 12:37:00,
2013-07-09 06:39:00,56.3,30.4,30.12,SSW,193,4.0,5.4,37,0.00,,---,0.00,VWS V14.01,2013-07-09 12:39:00,
2013-07-09 06:40:00,56.3,30.4,30.12,SSW,195,3.6,5.4,37,0.00,,---,0.00,VWS V14.01,2013-07-09 12:40:00,
2013-07-09 06:41:00,56.5,30.5,30.12,SSW,192,4.0,5.4,37,0.00,,---,0.00,VWS V14.01,2013-07-09 12:41:00,
2013-07-09 06:42:00,56.8,30.9,30.12,South,189,3.6,5.4,37,0.00,,---,0.00,VWS V14.01,2013-07-09 12:42:00,
2013-07-09 06:44:00,57.0,30.4,30.12,SSW,198,4.0,5.4,36,0.00,,---,0.00,VWS V14.01,2013-07-09 12:44:00,
2013-07-09 06:45:00,57.2,30.5,30.12,SSW,198,4.0,5.4,36,0.00,,---,0.00,VWS V14.01,2013-07-09 12:45:00,
2013-07-09 06:46:00,57.2,30.5,30.12,South,188,3.6,4.0,36,0.00,,---,0.00,VWS V14.01,2013-07-09 12:46:00,
2013-07-09 06:47:00,57.4,30.7,30.12,SSW,198,3.6,4.0,36,0.00,,---,0.00,VWS V14.01,2013-07-09 12:47:00,
2013-07-09 06:48:00,57.6,30.8,30.12,SSW,193,3.6,4.0,36,0.00,,---,0.00,VWS V14.01,2013-07-09 12:48:00,
2013-07-09 06:50:00,57.7,31.0,30.12,SSW,192,3.6,4.0,36,0.00,,---,0.00,VWS V14.01,2013-07-09 12:50:00,
2013-07-09 06:51:00,57.9,31.1,30.12,SSW,192,3.6,4.0,36,0.00,,---,0.00,VWS V14.01,2013-07-09 12:51:00,
2013-07-09 06:52:00,57.9,31.1,30.12,South,184,0.0,4.0,36,0.00,,---,0.00,VWS V14.01,2013-07-09 12:52:00,
2013-07-09 06:53:00,57.9,31.1,30.12,South,184,2.2,4.0,36,0.00,,---,0.00,VWS V14.01,2013-07-09 12:53:00,
2013-07-09 06:55:00,57.6,30.8,30.12,South,184,2.2,4.0,36,0.00,,---,0.00,VWS V14.01,2013-07-09 12:55:00,
2013-07-09 06:56:00,57.4,31.3,30.12,South,184,2.7,4.0,37,0.00,,---,0.00,VWS V14.01,2013-07-09 12:56:00,
2013-07-09 06:58:00,57.2,31.2,30.12,South,184,2.2,4.0,37,0.00,,---,0.00,VWS V14.01,2013-07-09 12:58:00,
2013-07-09 07:00:00,56.8,31.5,30.12,South,183,2.7,2.7,38,0.00,,---,0.00,VWS V14.01,2013-07-09 13:00:00,
2013-07-09 07:01:00,56.8,31.5,30.12,South,182,2.7,2.7,38,0.00,,---,0.00,VWS V14.01,2013-07-09 13:01:00,
2013-07-09 07:03:00,56.5,31.2,30.12,South,182,2.7,3.6,38,0.00,,---,0.00,VWS V14.01,2013-07-09 13:03:00,
2013-07-09 07:04:00,56.5,31.2,30.12,South,190,3.6,3.6,38,0.00,,---,0.00,VWS V14.01,2013-07-09 13:04:00,
2013-07-09 07:05:00,56.5,31.2,30.12,South,186,3.1,4.0,38,0.00,,---,0.00,VWS V14.01,2013-07-09 13:05:00,
2013-07-09 07:06:00,56.5,31.2,30.12,South,190,3.6,4.0,38,0.00,,---,0.00,VWS V14.01,2013-07-09 13:06:00,
2013-07-09 07:08:00,56.5,31.2,30.12,SSW,197,4.0,4.9,38,0.00,,---,0.00,VWS V14.01,2013-07-09 13:08:00,
2013-07-09 07:09:00,56.5,31.2,30.12,South,183,4.0,4.9,38,0.00,,---,0.00,VWS V14.01,2013-07-09 13:09:00,
2013-07-09 07:10:00,56.7,31.4,30.12,SSW,202,6.3,6.3,38,0.00,,---,0.00,VWS V14.01,2013-07-09 13:10:00,
2013-07-09 07:11:00,56.7,30.7,30.12,SSW,193,5.4,6.3,37,0.00,,---,0.00,VWS V14.01,2013-07-09 13:11:00,
2013-07-09 07:13:00,57.0,31.0,30.12,South,184,4.9,6.3,37,0.00,,---,0.00,VWS V14.01,2013-07-09 13:13:00,
2013-07-09 07:14:00,57.0,31.0,30.12,SSW,196,5.8,6.3,37,0.00,,---,0.00,VWS V14.01,2013-07-09 13:14:00,
2013-07-09 07:15:00,57.2,30.5,30.12,South,189,4.9,5.8,36,0.00,,---,0.00,VWS V14.01,2013-07-09 13:15:00,
2013-07-09 07:16:00,57.4,31.3,30.12,SSW,196,4.9,5.8,37,0.00,,---,0.00,VWS V14.01,2013-07-09 13:16:00,
2013-07-09 07:17:00,57.6,30.8,30.12,SSW,195,5.8,5.8,36,0.00,,---,0.00,VWS V14.01,2013-07-09 13:17:00,
2013-07-09 07:18:00,57.9,31.1,30.12,South,191,4.0,5.8,36,0.00,,---,0.00,VWS V14.01,2013-07-09 13:18:00,
2013-07-09 07:19:00,58.1,31.3,30.12,SSW,200,4.9,5.8,36,0.00,,---,0.00,VWS V14.01,2013-07-09 13:19:00,
2013-07-09 07:21:00,58.3,31.5,30.12,SSW,193,4.0,5.8,36,0.00,,---,0.00,VWS V14.01,2013-07-09 13:21:00,
2013-07-09 07:22:00,58.5,31.6,30.12,SSW,194,2.7,5.8,36,0.00,,---,0.00,VWS V14.01,2013-07-09 13:22:00,
2013-07-09 07:24:00,58.6,31.8,30.12,SSW,194,0.0,5.8,36,0.00,,---,0.00,VWS V14.01,2013-07-09 13:24:00,
2013-07-09 07:25:00,58.8,32.0,30.12,SSW,194,2.7,5.8,36,0.00,,---,0.00,VWS V14.01,2013-07-09 13:25:00,
2013-07-09 07:26:00,58.8,32.0,30.12,SSW,194,2.7,5.8,36,0.00,,---,0.00,VWS V14.01,2013-07-09 13:26:00,
2013-07-09 07:27:00,58.8,32.0,30.12,SSW,194,2.2,5.8,36,0.00,,---,0.00,VWS V14.01,2013-07-09 13:27:00,
2013-07-09 07:29:00,58.8,32.6,30.12,NE,41,2.7,5.8,37,0.00,,---,0.00,VWS V14.01,2013-07-09 13:29:00,
2013-07-09 07:30:00,58.8,32.0,30.12,NNE,31,2.7,5.8,36,0.00,,---,0.00,VWS V14.01,2013-07-09 13:30:00,
2013-07-09 07:31:00,58.8,32.0,30.12,NNE,31,2.2,2.7,36,0.00,,---,0.00,VWS V14.01,2013-07-09 13:31:00,
2013-07-09 07:32:00,58.8,32.0,30.12,NNE,31,0.0,2.7,36,0.00,,---,0.00,VWS V14.01,2013-07-09 13:32:00,
2013-07-09 07:34:00,59.2,32.3,30.12,East,83,2.2,2.7,36,0.00,,---,0.00,VWS V14.01,2013-07-09 13:34:00,
2013-07-09 07:35:00,59.4,32.4,30.12,South,178,2.7,2.7,36,0.00,,---,0.00,VWS V14.01,2013-07-09 13:35:00,
2013-07-09 07:36:00,59.5,32.6,30.12,South,183,0.0,3.1,36,0.00,,---,0.00,VWS V14.01,2013-07-09 13:36:00,
2013-07-09 07:37:00,59.7,32.7,30.12,South,183,0.0,3.1,36,0.00,,---,0.00,VWS V14.01,2013-07-09 13:37:00,
2013-07-09 07:40:00,60.4,33.4,30.12,SE,145,0.0,3.1,36,0.00,,---,0.00,VWS V14.01,2013-07-09 13:40:00,
2013-07-09 07:41:00,60.6,33.5,30.12,ESE,117,0.0,3.1,36,0.00,,---,0.00,VWS V14.01,2013-07-09 13:41:00,
2013-07-09 07:43:00,61.0,33.2,30.12,ESE,117,2.7,3.1,35,0.00,,---,0.00,VWS V14.01,2013-07-09 13:43:00,
2013-07-09 07:45:00,61.3,33.5,30.12,ESE,117,3.1,3.1,35,0.00,,---,0.00,VWS V14.01,2013-07-09 13:45:00,
2013-07-09 07:46:00,61.3,33.5,30.12,ESE,117,0.0,3.1,35,0.00,,---,0.00,VWS V14.01,2013-07-09 13:46:00,
2013-07-09 07:47:00,61.3,33.5,30.12,SSE,156,2.2,3.1,35,0.00,,---,0.00,VWS V14.01,2013-07-09 13:47:00,
2013-07-09 07:48:00,61.3,33.5,30.12,SSE,159,2.2,3.1,35,0.00,,---,0.00,VWS V14.01,2013-07-09 13:48:00,
2013-07-09 07:50:00,61.2,33.3,30.12,South,169,0.0,3.1,35,0.00,,---,0.00,VWS V14.01,2013-07-09 13:50:00,
2013-07-09 07:51:00,61.0,33.2,30.12,South,169,0.0,3.1,35,0.00,,---,0.00,VWS V14.01,2013-07-09 13:51:00,
2013-07-09 07:52:00,61.0,33.2,30.12,South,169,2.2,3.1,35,0.00,,---,0.00,VWS V14.01,2013-07-09 13:52:00,
2013-07-09 07:53:00,60.8,33.0,30.12,South,169,0.0,3.1,35,0.00,,---,0.00,VWS V14.01,2013-07-09 13:53:00,
2013-07-09 07:55:00,60.6,32.8,30.12,South,183,3.1,3.1,35,0.00,,---,0.00,VWS V14.01,2013-07-09 13:55:00,
2013-07-09 07:56:00,60.6,32.8,30.12,South,183,2.2,3.1,35,0.00,,---,0.00,VWS V14.01,2013-07-09 13:56:00,
2013-07-09 07:57:00,60.6,32.8,30.12,South,183,2.2,3.1,35,0.00,,---,0.00,VWS V14.01,2013-07-09 13:57:00,
2013-07-09 07:58:00,60.6,32.8,30.12,South,184,2.7,3.1,35,0.00,,---,0.00,VWS V14.01,2013-07-09 13:58:00,
2013-07-09 08:00:00,60.6,32.8,30.12,South,183,0.0,2.2,35,0.00,,---,0.00,VWS V14.01,2013-07-09 14:00:00,
2013-07-09 08:01:00,60.6,32.8,30.12,South,183,0.0,2.2,35,0.00,,---,0.00,VWS V14.01,2013-07-09 14:01:00,
2013-07-09 08:02:00,60.8,33.0,30.12,South,183,0.0,2.2,35,0.00,,---,0.00,VWS V14.01,2013-07-09 14:02:00,
2013-07-09 08:03:00,60.8,33.0,30.12,South,183,0.0,2.2,35,0.00,,---,0.00,VWS V14.01,2013-07-09 14:03:00,
2013-07-09 08:06:00,61.2,33.3,30.12,South,183,0.0,2.2,35,0.00,,---,0.00,VWS V14.01,2013-07-09 14:06:00,
2013-07-09 08:07:00,61.3,33.5,30.12,South,183,0.0,2.2,35,0.00,,---,0.00,VWS V14.01,2013-07-09 14:07:00,
2013-07-09 08:08:00,61.5,33.6,30.12,South,184,0.0,2.2,35,0.00,,---,0.00,VWS V14.01,2013-07-09 14:08:00,
2013-07-09 08:11:00,62.2,33.5,30.12,SE,139,2.7,2.7,34,0.00,,---,0.00,VWS V14.01,2013-07-09 14:11:00,
2013-07-09 08:12:00,62.6,33.9,30.12,SE,139,0.0,2.7,34,0.00,,---,0.00,VWS V14.01,2013-07-09 14:12:00,
2013-07-09 08:13:00,62.8,34.0,30.12,SE,130,3.1,3.1,34,0.00,,---,0.00,VWS V14.01,2013-07-09 14:13:00,
2013-07-09 08:16:00,63.3,34.5,30.12,ESE,117,2.2,2.7,34,0.00,,---,0.00,VWS V14.01,2013-07-09 14:16:00,
2013-07-09 08:17:00,63.3,34.5,30.12,ESE,117,3.1,3.1,34,0.00,,---,0.00,VWS V14.01,2013-07-09 14:17:00,
2013-07-09 08:18:00,63.3,34.5,30.12,ESE,117,0.0,3.1,34,0.00,,---,0.00,VWS V14.01,2013-07-09 14:18:00,
2013-07-09 08:19:00,63.3,34.5,30.12,ESE,117,2.2,3.1,34,0.00,,---,0.00,VWS V14.01,2013-07-09 14:19:00,
2013-07-09 08:21:00,63.3,34.5,30.12,ESE,117,2.2,3.1,34,0.00,,---,0.00,VWS V14.01,2013-07-09 14:21:00,
2013-07-09 08:22:00,63.3,34.5,30.12,North,9,2.7,3.1,34,0.00,,---,0.00,VWS V14.01,2013-07-09 14:22:00,
2013-07-09 08:23:00,63.5,33.9,30.12,North,11,2.7,3.6,33,0.00,,---,0.00,VWS V14.01,2013-07-09 14:23:00,
2013-07-09 08:24:00,63.5,33.9,30.12,NNE,13,2.7,3.6,33,0.00,,---,0.00,VWS V14.01,2013-07-09 14:24:00,
2013-07-09 08:26:00,63.7,34.1,30.12,ENE,62,0.0,3.6,33,0.00,,---,0.00,VWS V14.01,2013-07-09 14:26:00,
2013-07-09 08:27:00,63.9,33.5,30.12,NE,50,3.1,3.6,32,0.00,,---,0.00,VWS V14.01,2013-07-09 14:27:00,
2013-07-09 08:28:00,63.9,33.5,30.12,NE,52,2.7,3.6,32,0.00,,---,0.00,VWS V14.01,2013-07-09 14:28:00,
2013-07-09 08:29:00,64.0,34.4,30.12,North,6,3.6,3.6,33,0.00,,---,0.00,VWS V14.01,2013-07-09 14:29:00,
2013-07-09 08:31:00,64.2,33.0,30.12,North,3,3.6,4.0,31,0.00,,---,0.00,VWS V14.01,2013-07-09 14:31:00,
2013-07-09 08:32:00,64.2,33.0,30.12,North,3,4.0,4.0,31,0.00,,---,0.00,VWS V14.01,2013-07-09 14:32:00,
2013-07-09 08:33:00,64.2,33.0,30.12,NNE,20,2.7,4.0,31,0.00,,---,0.00,VWS V14.01,2013-07-09 14:33:00,
2013-07-09 08:34:00,64.2,33.0,30.12,NNE,20,2.2,4.0,31,0.00,,---,0.00,VWS V14.01,2013-07-09 14:34:00,
2013-07-09 08:37:00,64.2,33.0,30.12,WNW,287,0.0,4.0,31,0.00,,---,0.00,VWS V14.01,2013-07-09 14:37:00,
2013-07-09 08:38:00,64.2,33.0,30.12,WNW,287,0.0,4.0,31,0.00,,---,0.00,VWS V14.01,2013-07-09 14:38:00,
2013-07-09 08:39:00,64.4,33.1,30.12,WNW,287,0.0,4.0,31,0.00,,---,0.00,VWS V14.01,2013-07-09 14:39:00,
2013-07-09 08:42:00,64.4,34.7,30.12,North,3,4.0,4.0,33,0.00,,---,0.00,VWS V14.01,2013-07-09 14:42:00,
2013-07-09 08:43:00,64.2,35.3,30.12,North,4,3.6,4.9,34,0.00,,---,0.00,VWS V14.01,2013-07-09 14:43:00,
2013-07-09 08:44:00,64.2,35.3,30.12,North,357,4.0,4.9,34,0.00,,---,0.00,VWS V14.01,2013-07-09 14:44:00,
2013-07-09 08:45:00,64.0,35.1,30.12,North,0,4.0,4.0,34,0.00,,---,0.00,VWS V14.01,2013-07-09 14:45:00,
2013-07-09 08:47:00,63.7,34.8,30.12,North,0,3.6,4.0,34,0.00,,---,0.00,VWS V14.01,2013-07-09 14:47:00,
2013-07-09 08:48:00,63.7,34.8,30.12,North,357,3.6,4.0,34,0.00,,---,0.00,VWS V14.01,2013-07-09 14:48:00,
2013-07-09 08:49:00,63.7,34.8,30.12,North,6,3.1,5.8,34,0.00,,---,0.00,VWS V14.01,2013-07-09 14:49:00,
2013-07-09 08:50:00,63.7,34.8,30.12,NNE,28,3.6,5.8,34,0.00,,---,0.00,VWS V14.01,2013-07-09 14:50:00,
2013-07-09 08:52:00,63.7,34.8,30.12,NE,38,2.7,5.8,34,0.00,,---,0.00,VWS V14.01,2013-07-09 14:52:00,
2013-07-09 08:53:00,63.7,35.5,30.12,NNE,32,2.7,5.8,35,0.00,,---,0.00,VWS V14.01,2013-07-09 14:53:00,
2013-07-09 08:54:00,63.7,34.8,30.12,NNE,30,2.7,5.8,34,0.00,,---,0.00,VWS V14.01,2013-07-09 14:54:00,
2013-07-09 08:55:00,63.9,35.0,30.12,NNE,26,3.6,5.8,34,0.00,,---,0.00,VWS V14.01,2013-07-09 14:55:00,
2013-07-09 08:57:00,63.5,34.7,30.12,NNE,30,4.0,5.8,34,0.00,,---,0.00,VWS V14.01,2013-07-09 14:57:00,
2013-07-09 08:58:00,63.5,34.7,30.12,NNE,24,3.1,5.8,34,0.00,,---,0.00,VWS V14.01,2013-07-09 14:58:00,
2013-07-09 08:59:00,63.5,34.7,30.12,North,10,3.6,5.8,34,0.00,,---,0.00,VWS V14.01,2013-07-09 14:59:00,
2013-07-09 09:00:00,63.5,34.7,30.12,NNE,20,3.1,5.8,34,0.00,,---,0.00,VWS V14.01,2013-07-09 15:00:00,
2013-07-09 09:02:00,63.3,34.5,30.12,NNE,17,4.0,4.0,34,0.00,,---,0.00,VWS V14.01,2013-07-09 15:02:00,
2013-07-09 09:03:00,63.5,34.7,30.12,NNE,26,2.7,4.0,34,0.00,,---,0.00,VWS V14.01,2013-07-09 15:03:00,
2013-07-09 09:04:00,63.5,34.7,30.12,North,8,2.7,4.0,34,0.00,,---,0.00,VWS V14.01,2013-07-09 15:04:00,
2013-07-09 09:05:00,63.5,34.7,30.12,North,10,2.2,4.0,34,0.00,,---,0.00,VWS V14.01,2013-07-09 15:05:00,
2013-07-09 09:08:00,63.9,35.0,30.12,North,5,2.2,4.0,34,0.00,,---,0.00,VWS V14.01,2013-07-09 15:08:00,
2013-07-09 09:09:00,64.0,35.1,30.12,North,5,3.6,4.0,34,0.00,,---,0.00,VWS V14.01,2013-07-09 15:09:00,
2013-07-09 09:11:00,64.4,34.7,30.12,North,5,0.0,4.0,33,0.00,,---,0.00,VWS V14.01,2013-07-09 15:11:00,
2013-07-09 09:13:00,65.1,35.3,30.12,North,353,2.7,4.0,33,0.00,,---,0.00,VWS V14.01,2013-07-09 15:13:00,
2013-07-09 09:15:00,65.7,34.2,30.12,NE,54,2.7,4.0,31,0.00,,---,0.00,VWS V14.01,2013-07-09 15:15:00,
2013-07-09 09:16:00,66.2,33.9,30.12,NNE,14,3.6,4.0,30,0.00,,---,0.00,VWS V14.01,2013-07-09 15:16:00,
2013-07-09 09:18:00,66.6,33.3,30.12,NE,38,3.1,5.4,29,0.00,,---,0.00,VWS V14.01,2013-07-09 15:18:00,
2013-07-09 09:19:00,66.9,33.7,30.12,North,8,0.0,5.4,29,0.00,,---,0.00,VWS V14.01,2013-07-09 15:19:00,
2013-07-09 09:21:00,67.3,33.1,30.12,North,11,3.1,5.4,28,0.00,,---,0.00,VWS V14.01,2013-07-09 15:21:00,
2013-07-09 09:23:00,67.8,34.4,30.12,North,9,2.7,5.4,29,0.00,,---,0.00,VWS V14.01,2013-07-09 15:23:00,
2013-07-09 09:24:00,68.2,33.0,30.12,NNE,25,4.0,5.4,27,0.00,,---,0.00,VWS V14.01,2013-07-09 15:24:00,
2013-07-09 09:26:00,68.5,33.3,30.12,ENE,62,0.0,5.4,27,0.00,,---,0.00,VWS V14.01,2013-07-09 15:26:00,
2013-07-09 09:27:00,68.5,33.3,30.12,ENE,61,2.7,5.4,27,0.00,,---,0.00,VWS V14.01,2013-07-09 15:27:00,
2013-07-09 09:28:00,69.1,33.7,30.12,ENE,63,0.0,5.4,27,0.00,,---,0.00,VWS V14.01,2013-07-09 15:28:00,
2013-07-09 09:30:00,70.0,33.5,30.12,ENE,76,0.0,3.1,26,0.00,,---,0.00,VWS V14.01,2013-07-09 15:30:00,
2013-07-09 09:31:00,70.3,32.9,30.12,NE,56,2.7,3.1,25,0.00,,---,0.00,VWS V14.01,2013-07-09 15:31:00,
2013-07-09 09:32:00,70.3,32.9,30.12,NE,56,2.7,3.1,25,0.00,,---,0.00,VWS V14.01,2013-07-09 15:32:00,
2013-07-09 09:33:00,70.7,33.2,30.12,ENE,69,3.6,3.6,25,0.00,,---,0.00,VWS V14.01,2013-07-09 15:33:00,
2013-07-09 09:36:00,71.4,32.8,30.12,NE,56,3.6,4.0,24,0.00,,---,0.00,VWS V14.01,2013-07-09 15:36:00,
2013-07-09 09:37:00,71.4,32.8,30.12,ENE,61,2.2,4.0,24,0.00,,---,0.00,VWS V14.01,2013-07-09 15:37:00,
2013-07-09 09:38:00,71.4,32.8,30.12,East,98,4.0,4.0,24,0.00,,---,0.00,VWS V14.01,2013-07-09 15:38:00,
2013-07-09 09:41:00,72.3,33.5,30.12,East,89,3.1,5.8,24,0.00,,---,0.00,VWS V14.01,2013-07-09 15:41:00,
2013-07-09 09:42:00,72.3,33.5,30.12,East,89,3.1,5.8,24,0.00,,---,0.00,VWS V14.01,2013-07-09 15:42:00,
2013-07-09 09:43:00,72.5,33.7,30.12,East,89,0.0,5.8,24,0.00,,---,0.00,VWS V14.01,2013-07-09 15:43:00,
2013-07-09 09:44:00,72.7,33.8,30.12,East,101,4.0,5.8,24,0.00,,---,0.00,VWS V14.01,2013-07-09 15:44:00,
2013-07-09 09:47:00,72.5,32.6,30.12,East,82,0.0,4.0,23,0.00,,---,0.00,VWS V14.01,2013-07-09 15:47:00,
2013-07-09 09:48:00,72.5,32.6,30.12,East,98,2.2,4.0,23,0.00,,---,0.00,VWS V14.01,2013-07-09 15:48:00,
2013-07-09 09:49:00,72.5,32.6,30.12,North,6,4.5,5.4,23,0.00,,---,0.00,VWS V14.01,2013-07-09 15:49:00,
2013-07-09 09:52:00,71.8,32.0,30.12,NNE,17,2.7,5.8,23,0.00,,---,0.00,VWS V14.01,2013-07-09 15:52:00,
2013-07-09 09:53:00,71.8,32.0,30.12,NNE,31,4.0,5.8,23,0.00,,---,0.00,VWS V14.01,2013-07-09 15:53:00,
2013-07-09 09:54:00,71.4,31.7,30.12,NE,53,2.7,5.8,23,0.00,,---,0.00,VWS V14.01,2013-07-09 15:54:00,
2013-07-09 09:57:00,71.4,31.7,30.12,ENE,73,2.2,5.8,23,0.00,,---,0.00,VWS V14.01,2013-07-09 15:57:00,
2013-07-09 09:58:00,71.8,30.9,30.12,ENE,57,3.1,5.8,22,0.00,,---,0.00,VWS V14.01,2013-07-09 15:58:00,
2013-07-09 09:59:00,72.1,31.2,30.12,NE,55,0.0,5.8,22,0.00,,---,0.00,VWS V14.01,2013-07-09 15:59:00,
2013-07-09 10:02:00,72.7,31.7,30.12,ENE,72,2.7,3.6,22,0.00,,---,0.00,VWS V14.01,2013-07-09 16:02:00,
2013-07-09 10:03:00,72.7,31.7,30.12,NE,49,4.0,4.0,22,0.00,,---,0.00,VWS V14.01,2013-07-09 16:03:00,
2013-07-09 10:04:00,72.5,31.5,30.12,North,4,2.7,4.0,22,0.00,,---,0.00,VWS V14.01,2013-07-09 16:04:00,
2013-07-09 10:07:00,72.7,31.7,30.12,NNE,27,4.0,4.0,22,0.00,,---,0.00,VWS V14.01,2013-07-09 16:07:00,
2013-07-09 10:08:00,72.5,31.5,30.12,NE,53,2.7,4.9,22,0.00,,---,0.00,VWS V14.01,2013-07-09 16:08:00,
2013-07-09 10:10:00,72.5,31.5,30.12,ENE,69,2.7,4.9,22,0.00,,---,0.00,VWS V14.01,2013-07-09 16:10:00,
2013-07-09 10:12:00,72.5,31.5,30.12,NE,52,3.6,5.4,22,0.00,,---,0.00,VWS V14.01,2013-07-09 16:12:00,
2013-07-09 10:13:00,72.3,31.4,30.12,NE,52,2.7,5.4,22,0.00,,---,0.00,VWS V14.01,2013-07-09 16:13:00,
2013-07-09 10:14:00,72.3,31.4,30.12,North,0,3.6,5.4,22,0.00,,---,0.00,VWS V14.01,2013-07-09 16:14:00,
2013-07-09 10:15:00,72.3,31.4,30.12,NW,310,0.0,0.0,22,0.00,,---,0.00,VWS V14.01,2013-07-09 16:15:00,
2013-07-09 10:17:00,72.9,31.8,30.12,NNE,17,2.7,2.7,22,0.00,,---,0.00,VWS V14.01,2013-07-09 16:17:00,
2013-07-09 10:18:00,73.0,32.0,30.12,NNE,14,2.2,4.0,22,0.00,,---,0.00,VWS V14.01,2013-07-09 16:18:00,
2013-07-09 10:19:00,73.4,32.3,30.12,North,0,6.3,6.3,22,0.00,,---,0.00,VWS V14.01,2013-07-09 16:19:00,
2013-07-09 10:20:00,73.6,32.4,30.12,SE,125,4.0,6.3,22,0.00,,---,0.00,VWS V14.01,2013-07-09 16:20:00,
2013-07-09 10:22:00,73.6,31.3,30.12,NE,49,3.1,6.3,21,0.00,,---,0.00,VWS V14.01,2013-07-09 16:22:00,
2013-07-09 10:23:00,73.6,31.3,30.12,NE,50,3.6,6.3,21,0.00,,---,0.00,VWS V14.01,2013-07-09 16:23:00,
2013-07-09 10:24:00,73.4,31.1,30.12,NE,55,2.7,6.3,21,0.00,,---,0.00,VWS V14.01,2013-07-09 16:24:00,
2013-07-09 10:26:00,73.4,31.1,30.12,North,7,3.1,6.3,21,0.00,,---,0.00,VWS V14.01,2013-07-09 16:26:00,
2013-07-09 10:28:00,73.4,31.1,30.12,NNW,342,4.9,6.3,21,0.00,,---,0.00,VWS V14.01,2013-07-09 16:28:00,
2013-07-09 10:29:00,73.0,32.0,30.12,NNE,27,2.7,6.3,22,0.00,,---,0.00,VWS V14.01,2013-07-09 16:29:00,
2013-07-09 10:30:00,73.0,32.0,30.12,NNE,12,4.0,6.3,22,0.00,,---,0.00,VWS V14.01,2013-07-09 16:30:00,
2013-07-09 10:31:00,73.0,32.0,30.12,NE,37,4.0,4.0,22,0.00,,---,0.00,VWS V14.01,2013-07-09 16:31:00,
2013-07-09 10:33:00,73.2,32.1,30.15,North,357,3.6,4.0,22,0.00,,---,0.00,VWS V14.01,2013-07-09 16:33:00,
2013-07-09 10:34:00,73.4,31.1,30.15,North,9,0.0,4.0,21,0.00,,---,0.00,VWS V14.01,2013-07-09 16:34:00,
2013-07-09 10:35:00,73.6,31.3,30.15,East,79,2.2,4.0,21,0.00,,---,0.00,VWS V14.01,2013-07-09 16:35:00,
2013-07-09 10:37:00,74.1,31.7,30.15,SE,130,4.0,5.4,21,0.00,,---,0.00,VWS V14.01,2013-07-09 16:37:00,
2013-07-09 10:38:00,74.3,31.9,30.15,SE,134,4.5,6.3,21,0.00,,---,0.00,VWS V14.01,2013-07-09 16:38:00,
2013-07-09 10:39:00,74.7,32.2,30.15,East,100,4.0,6.3,21,0.00,,---,0.00,VWS V14.01,2013-07-09 16:39:00,
2013-07-09 10:40:00,74.8,32.3,30.15,ESE,102,2.7,6.3,21,0.00,,---,0.00,VWS V14.01,2013-07-09 16:40:00,
2013-07-09 10:42:00,75.4,32.8,30.15,ENE,69,0.0,6.3,21,0.00,,---,0.00,VWS V14.01,2013-07-09 16:42:00,
2013-07-09 10:43:00,75.4,32.8,30.15,ENE,67,2.7,6.3,21,0.00,,---,0.00,VWS V14.01,2013-07-09 16:43:00,
2013-07-09 10:44:00,75.4,31.6,30.15,North,3,4.9,6.7,20,0.00,,---,0.00,VWS V14.01,2013-07-09 16:44:00,
2013-07-09 10:45:00,75.0,32.5,30.15,NNE,21,3.6,4.9,21,0.00,,---,0.00,VWS V14.01,2013-07-09 16:45:00,
2013-07-09 10:47:00,74.3,31.9,30.15,North,4,3.1,5.8,21,0.00,,---,0.00,VWS V14.01,2013-07-09 16:47:00,
2013-07-09 10:48:00,73.9,31.6,30.15,North,5,4.0,5.8,21,0.00,,---,0.00,VWS V14.01,2013-07-09 16:48:00,
2013-07-09 10:50:00,73.6,31.3,30.15,North,6,2.7,5.8,21,0.00,,---,0.00,VWS V14.01,2013-07-09 16:50:00,
2013-07-09 10:53:00,73.6,31.3,30.15,North,2,3.6,5.8,21,0.00,,---,0.00,VWS V14.01,2013-07-09 16:53:00,
2013-07-09 10:55:00,73.8,31.4,30.15,ESE,114,3.1,5.8,21,0.00,,---,0.00,VWS V14.01,2013-07-09 16:55:00,
2013-07-09 10:56:00,74.1,31.7,30.15,ESE,110,2.7,5.8,21,0.00,,---,0.00,VWS V14.01,2013-07-09 16:56:00,
2013-07-09 10:58:00,74.3,31.9,30.15,ESE,112,0.0,5.8,21,0.00,,---,0.00,VWS V14.01,2013-07-09 16:58:00,
2013-07-09 11:00:00,74.7,32.2,30.15,NE,41,3.1,3.1,21,0.00,,---,0.00,VWS V14.01,2013-07-09 17:00:00,
2013-07-09 11:02:00,74.7,28.4,30.15,East,92,2.2,5.4,18,0.00,,---,0.00,VWS V14.01,2013-07-09 17:02:00,
2013-07-09 11:03:00,74.8,28.5,30.15,ENE,73,2.2,5.4,18,0.00,,---,0.00,VWS V14.01,2013-07-09 17:03:00,
2013-07-09 11:04:00,74.8,28.5,30.15,SE,124,3.1,5.4,18,0.00,,---,0.00,VWS V14.01,2013-07-09 17:04:00,
2013-07-09 11:06:00,75.0,28.7,30.15,South,171,3.6,5.4,18,0.00,,---,0.00,VWS V14.01,2013-07-09 17:06:00,
2013-07-09 11:07:00,75.0,28.7,30.15,South,187,2.7,5.4,18,0.00,,---,0.00,VWS V14.01,2013-07-09 17:07:00,
2013-07-09 11:08:00,74.8,28.5,30.15,NNE,15,4.0,5.4,18,0.00,,---,0.00,VWS V14.01,2013-07-09 17:08:00,
2013-07-09 11:09:00,74.8,28.5,30.15,NNE,15,4.0,5.4,18,0.00,,---,0.00,VWS V14.01,2013-07-09 17:09:00,
2013-07-09 11:10:00,74.7,28.4,30.15,North,10,4.9,6.3,18,0.00,,---,0.00,VWS V14.01,2013-07-09 17:10:00,
2013-07-09 11:11:00,74.1,27.9,30.15,North,357,2.7,6.3,18,0.00,,---,0.00,VWS V14.01,2013-07-09 17:11:00,
2013-07-09 11:12:00,73.9,27.8,30.15,North,357,3.1,6.3,18,0.00,,---,0.00,VWS V14.01,2013-07-09 17:12:00,
2013-07-09 11:14:00,73.8,27.6,30.15,NNE,21,3.6,6.3,18,0.00,,---,0.00,VWS V14.01,2013-07-09 17:14:00,
2013-07-09 11:15:00,73.6,27.5,30.15,NNE,14,4.0,4.0,18,0.00,,---,0.00,VWS V14.01,2013-07-09 17:15:00,
2013-07-09 11:16:00,73.4,27.4,30.15,West,275,3.6,4.0,18,0.00,,---,0.00,VWS V14.01,2013-07-09 17:16:00,
2013-07-09 11:17:00,73.4,31.1,30.15,North,8,2.2,4.0,21,0.00,,---,0.00,VWS V14.01,2013-07-09 17:17:00,
2013-07-09 11:19:00,73.2,28.5,30.15,NNE,22,2.2,4.9,19,0.00,,---,0.00,VWS V14.01,2013-07-09 17:19:00,
2013-07-09 11:21:00,73.4,27.4,30.15,ENE,59,3.6,4.9,18,0.00,,---,0.00,VWS V14.01,2013-07-09 17:21:00,
2013-07-09 11:22:00,73.4,27.4,30.15,NE,46,5.8,5.8,18,0.00,,---,0.00,VWS V14.01,2013-07-09 17:22:00,
2013-07-09 11:24:00,73.4,27.4,30.15,NE,37,2.7,5.8,18,0.00,,---,0.00,VWS V14.01,2013-07-09 17:24:00,
2013-07-09 11:26:00,73.4,27.4,30.15,East,88,0.0,5.8,18,0.00,,---,0.00,VWS V14.01,2013-07-09 17:26:00,
2013-07-09 11:27:00,73.4,27.4,30.15,East,96,3.1,5.8,18,0.00,,---,0.00,VWS V14.01,2013-07-09 17:27:00,
2013-07-09 11:29:00,73.8,27.6,30.15,ESE,108,3.6,5.8,18,0.00,,---,0.00,VWS V14.01,2013-07-09 17:29:00,
2013-07-09 11:31:00,73.9,27.8,30.15,ESE,107,0.0,3.1,18,0.00,,---,0.00,VWS V14.01,2013-07-09 17:31:00,
2013-07-09 11:32:00,74.1,27.9,30.15,East,97,3.6,4.0,18,0.00,,---,0.00,VWS V14.01,2013-07-09 17:32:00,
2013-07-09 11:33:00,74.5,28.2,30.12,SE,140,3.6,4.0,18,0.00,,---,0.00,VWS V14.01,2013-07-09 17:33:00,
2013-07-09 11:34:00,74.5,25.4,30.12,NNE,17,3.6,4.0,16,0.00,,---,0.00,VWS V14.01,2013-07-09 17:34:00,
2013-07-09 11:36:00,74.5,28.2,30.12,North,11,2.2,4.0,18,0.00,,---,0.00,VWS V14.01,2013-07-09 17:36:00,
2013-07-09 11:37:00,74.3,28.1,30.12,ENE,78,3.1,4.0,18,0.00,,---,0.00,VWS V14.01,2013-07-09 17:37:00,
2013-07-09 11:38:00,74.3,28.1,30.12,ESE,118,3.1,4.0,18,0.00,,---,0.00,VWS V14.01,2013-07-09 17:38:00,
2013-07-09 11:39:00,74.3,28.1,30.12,SE,135,0.0,4.0,18,0.00,,---,0.00,VWS V14.01,2013-07-09 17:39:00,
2013-07-09 11:40:00,74.5,28.2,30.12,SE,135,0.0,4.0,18,0.00,,---,0.00,VWS V14.01,2013-07-09 17:40:00,
2013-07-09 11:41:00,74.7,28.4,30.12,SE,125,0.0,4.0,18,0.00,,---,0.00,VWS V14.01,2013-07-09 17:41:00,
2013-07-09 11:42:00,74.8,25.7,30.12,East,89,2.7,4.0,16,0.00,,---,0.00,VWS V14.01,2013-07-09 17:42:00,
2013-07-09 11:43:00,75.0,25.8,30.12,SE,131,3.1,4.0,16,0.00,,---,0.00,VWS V14.01,2013-07-09 17:43:00,
2013-07-09 11:44:00,75.2,24.4,30.12,WNW,282,4.9,4.9,15,0.00,,---,0.00,VWS V14.01,2013-07-09 17:44:00,
2013-07-09 11:45:00,75.2,24.4,30.12,NW,314,4.9,4.9,15,0.00,,---,0.00,VWS V14.01,2013-07-09 17:45:00,
2013-07-09 11:46:00,75.4,24.6,30.12,NNW,328,3.6,4.9,15,0.00,,---,0.00,VWS V14.01,2013-07-09 17:46:00,
2013-07-09 11:47:00,75.4,24.6,30.12,North,353,4.0,4.9,15,0.00,,---,0.00,VWS V14.01,2013-07-09 17:47:00,
2013-07-09 11:48:00,75.4,24.6,30.12,North,9,5.8,6.3,15,0.00,,---,0.00,VWS V14.01,2013-07-09 17:48:00,
2013-07-09 11:49:00,75.0,25.8,30.12,NNW,344,0.0,6.3,16,0.00,,---,0.00,VWS V14.01,2013-07-09 17:49:00,
2013-07-09 11:50:00,75.0,25.8,30.12,NW,314,2.7,6.3,16,0.00,,---,0.00,VWS V14.01,2013-07-09 17:50:00,
2013-07-09 11:51:00,75.0,25.8,30.12,NW,322,3.1,6.3,16,0.00,,---,0.00,VWS V14.01,2013-07-09 17:51:00,
2013-07-09 11:52:00,75.0,20.9,30.12,NNW,336,2.7,6.3,13,0.00,,---,0.00,VWS V14.01,2013-07-09 17:52:00,
2013-07-09 11:53:00,75.0,20.9,30.12,ENE,58,3.1,6.3,13,0.00,,---,0.00,VWS V14.01,2013-07-09 17:53:00,
2013-07-09 11:55:00,75.0,20.9,30.12,NNW,328,3.1,6.3,13,0.00,,---,0.00,VWS V14.01,2013-07-09 17:55:00,
2013-07-09 11:56:00,75.2,21.0,30.12,NW,306,3.6,6.3,13,0.00,,---,0.00,VWS V14.01,2013-07-09 17:56:00,
2013-07-09 11:57:00,75.2,21.0,30.12,North,0,2.7,6.3,13,0.00,,---,0.00,VWS V14.01,2013-07-09 17:57:00,
2013-07-09 11:58:00,75.4,21.2,30.12,NNE,28,5.8,6.3,13,0.00,,---,0.00,VWS V14.01,2013-07-09 17:58:00,
2013-07-09 12:00:00,75.4,24.6,30.12,North,357,2.7,2.7,15,0.00,,---,0.00,VWS V14.01,2013-07-09 18:00:00,
2013-07-09 12:01:00,75.4,21.2,30.12,NNE,18,5.4,5.4,13,0.00,,---,0.00,VWS V14.01,2013-07-09 18:01:00,
2013-07-09 12:03:00,75.2,21.0,30.12,North,5,3.6,6.3,13,0.00,,---,0.00,VWS V14.01,2013-07-09 18:03:00,
2013-07-09 12:05:00,75.0,20.9,30.12,NNE,21,4.9,6.3,13,0.00,,---,0.00,VWS V14.01,2013-07-09 18:05:00,
2013-07-09 12:06:00,75.0,20.9,30.12,North,357,3.6,6.3,13,0.00,,---,0.00,VWS V14.01,2013-07-09 18:06:00,
2013-07-09 12:07:00,75.0,20.9,30.12,North,357,3.1,6.3,13,0.00,,---,0.00,VWS V14.01,2013-07-09 18:07:00,
2013-07-09 12:08:00,74.8,20.7,30.12,North,5,3.1,6.3,13,0.00,,---,0.00,VWS V14.01,2013-07-09 18:08:00,
2013-07-09 12:09:00,74.8,20.7,30.12,North,5,5.4,6.3,13,0.00,,---,0.00,VWS V14.01,2013-07-09 18:09:00,
2013-07-09 12:10:00,74.8,20.7,30.12,North,2,5.8,6.3,13,0.00,,---,0.00,VWS V14.01,2013-07-09 18:10:00,
2013-07-09 12:11:00,74.8,20.7,30.12,North,357,4.9,6.3,13,0.00,,---,0.00,VWS V14.01,2013-07-09 18:11:00,
2013-07-09 12:12:00,75.0,20.9,30.12,North,353,4.9,6.3,13,0.00,,---,0.00,VWS V14.01,2013-07-09 18:12:00,
2013-07-09 12:13:00,75.2,21.0,30.12,North,357,5.8,6.3,13,0.00,,---,0.00,VWS V14.01,2013-07-09 18:13:00,
2013-07-09 12:14:00,75.2,21.0,30.12,North,1,5.8,6.3,13,0.00,,---,0.00,VWS V14.01,2013-07-09 18:14:00,
2013-07-09 12:16:00,75.4,21.2,30.12,NW,321,3.1,4.0,13,0.00,,---,0.00,VWS V14.01,2013-07-09 18:16:00,
2013-07-09 12:17:00,75.6,21.3,30.12,NW,309,0.0,4.0,13,0.00,,---,0.00,VWS V14.01,2013-07-09 18:17:00,
2013-07-09 12:18:00,75.9,21.6,30.12,NW,320,5.4,5.4,13,0.00,,---,0.00,VWS V14.01,2013-07-09 18:18:00,
2013-07-09 12:19:00,75.9,21.6,30.12,North,353,2.7,5.4,13,0.00,,---,0.00,VWS V14.01,2013-07-09 18:19:00,
2013-07-09 12:21:00,75.9,21.6,30.12,North,0,2.7,5.4,13,0.00,,---,0.00,VWS V14.01,2013-07-09 18:21:00,
2013-07-09 12:22:00,75.9,21.6,30.12,North,0,2.7,5.4,13,0.00,,---,0.00,VWS V14.01,2013-07-09 18:22:00,
2013-07-09 12:24:00,76.1,21.7,30.12,NNE,12,3.6,5.4,13,0.00,,---,0.00,VWS V14.01,2013-07-09 18:24:00,
2013-07-09 12:26:00,76.3,21.9,30.12,NNE,21,3.1,5.4,13,0.00,,---,0.00,VWS V14.01,2013-07-09 18:26:00,
2013-07-09 12:27:00,76.1,21.7,30.12,North,357,4.0,5.8,13,0.00,,---,0.00,VWS V14.01,2013-07-09 18:27:00,
2013-07-09 12:29:00,76.1,21.7,30.12,NNE,21,6.3,6.3,13,0.00,,---,0.00,VWS V14.01,2013-07-09 18:29:00,
2013-07-09 12:31:00,76.3,21.9,30.12,North,0,3.6,5.4,13,0.00,,---,0.00,VWS V14.01,2013-07-09 18:31:00,
2013-07-09 12:32:00,76.3,21.9,30.12,North,9,6.3,6.3,13,0.00,,---,0.00,VWS V14.01,2013-07-09 18:32:00,
2013-07-09 12:34:00,76.3,21.9,30.12,NNW,346,4.9,6.3,13,0.00,,---,0.00,VWS V14.01,2013-07-09 18:34:00,
2013-07-09 12:36:00,76.3,21.9,30.12,North,6,2.7,6.3,13,0.00,,---,0.00,VWS V14.01,2013-07-09 18:36:00,
2013-07-09 12:37:00,76.5,22.0,30.12,North,357,3.6,6.3,13,0.00,,---,0.00,VWS V14.01,2013-07-09 18:37:00,
2013-07-09 12:40:00,76.1,15.6,30.12,North,0,3.6,6.3,10,0.00,,---,0.00,VWS V14.01,2013-07-09 18:40:00,
2013-07-09 12:42:00,76.1,15.6,30.12,North,11,5.4,8.1,10,0.00,,---,0.00,VWS V14.01,2013-07-09 18:42:00,
2013-07-09 12:45:00,75.9,15.5,30.12,North,2,3.6,3.6,10,0.00,,---,0.00,VWS V14.01,2013-07-09 18:45:00,
2013-07-09 12:47:00,75.6,15.2,30.12,ENE,72,2.7,8.1,10,0.00,,---,0.00,VWS V14.01,2013-07-09 18:47:00,
2013-07-09 12:48:00,75.6,15.2,30.12,North,357,5.4,8.1,10,0.00,,---,0.00,VWS V14.01,2013-07-09 18:48:00,
2013-07-09 12:50:00,75.7,15.4,30.12,NNE,24,4.0,8.1,10,0.00,,---,0.00,VWS V14.01,2013-07-09 18:50:00,
2013-07-09 12:52:00,75.7,15.4,30.12,NE,51,3.1,8.1,10,0.00,,---,0.00,VWS V14.01,2013-07-09 18:52:00,
2013-07-09 12:53:00,75.7,21.5,30.12,NNE,18,4.0,8.1,13,0.00,,---,0.00,VWS V14.01,2013-07-09 18:53:00,
2013-07-09 12:55:00,75.9,15.5,30.12,NNE,32,5.4,8.1,10,0.00,,---,0.00,VWS V14.01,2013-07-09 18:55:00,
2013-07-09 12:58:00,75.7,15.4,30.12,North,7,5.4,8.1,10,0.00,,---,0.00,VWS V14.01,2013-07-09 18:58:00,
2013-07-09 13:00:00,75.6,15.2,30.12,NNE,23,4.0,6.3,10,0.00,,---,0.00,VWS V14.01,2013-07-09 19:00:00,
2013-07-09 13:01:00,75.6,15.2,30.12,NNE,31,4.9,6.3,10,0.00,,---,0.00,VWS V14.01,2013-07-09 19:01:00,
2013-07-09 13:03:00,75.4,15.1,30.12,East,84,2.7,6.3,10,0.00,,---,0.00,VWS V14.01,2013-07-09 19:03:00,
2013-07-09 13:05:00,75.4,15.1,30.12,NE,53,3.1,6.3,10,0.00,,---,0.00,VWS V14.01,2013-07-09 19:05:00,
2013-07-09 13:06:00,75.6,15.2,30.12,NNE,23,3.6,6.3,10,0.00,,---,0.00,VWS V14.01,2013-07-09 19:06:00,
2013-07-09 13:08:00,75.6,15.2,30.12,North,353,0.0,6.3,10,0.00,,---,0.00,VWS V14.01,2013-07-09 19:08:00,
2013-07-09 13:12:00,75.7,15.4,30.12,North,3,5.8,6.3,10,0.00,,---,0.00,VWS V14.01,2013-07-09 19:12:00,
2013-07-09 13:13:00,75.9,15.5,30.12,NNE,32,2.7,6.3,10,0.00,,---,0.00,VWS V14.01,2013-07-09 19:13:00,
2013-07-09 13:14:00,75.9,15.5,30.12,NE,49,3.1,6.3,10,0.00,,---,0.00,VWS V14.01,2013-07-09 19:14:00,
2013-07-09 13:17:00,76.1,15.6,30.12,NNE,17,6.3,8.7,10,0.00,,---,0.00,VWS V14.01,2013-07-09 19:17:00,
2013-07-09 13:18:00,76.1,15.6,30.12,NE,37,2.7,8.7,10,0.00,,---,0.00,VWS V14.01,2013-07-09 19:18:00,
2013-07-09 13:19:00,75.9,15.5,30.12,WNW,290,4.0,8.7,10,0.00,,---,0.00,VWS V14.01,2013-07-09 19:19:00,
2013-07-09 13:22:00,75.9,15.5,30.12,East,96,3.6,8.7,10,0.00,,---,0.00,VWS V14.01,2013-07-09 19:22:00,
2013-07-09 13:23:00,76.3,15.8,30.12,NE,36,2.7,8.7,10,0.00,,---,0.00,VWS V14.01,2013-07-09 19:23:00,
2013-07-09 13:24:00,76.5,15.9,30.12,NE,40,5.8,8.7,10,0.00,,---,0.00,VWS V14.01,2013-07-09 19:24:00,
2013-07-09 13:27:00,77.0,16.3,30.12,North,353,4.9,8.7,10,0.00,,---,0.00,VWS V14.01,2013-07-09 19:27:00,
2013-07-09 13:28:00,77.0,16.3,30.12,North,6,5.8,8.7,10,0.00,,---,0.00,VWS V14.01,2013-07-09 19:28:00,
2013-07-09 13:29:00,77.0,16.3,30.12,North,357,3.1,8.7,10,0.00,,---,0.00,VWS V14.01,2013-07-09 19:29:00,
2013-07-09 13:33:00,77.2,16.5,30.12,NNW,338,3.6,6.3,10,0.00,,---,0.00,VWS V14.01,2013-07-09 19:33:00,
2013-07-09 13:34:00,77.4,16.6,30.12,WSW,244,0.0,6.3,10,0.00,,---,0.00,VWS V14.01,2013-07-09 19:34:00,
2013-07-09 13:38:00,77.7,16.9,30.12,NNW,335,3.1,6.3,10,0.00,,---,0.00,VWS V14.01,2013-07-09 19:38:00,
2013-07-09 13:39:00,77.7,16.9,30.12,West,280,4.9,6.3,10,0.00,,---,0.00,VWS V14.01,2013-07-09 19:39:00,
2013-07-09 13:43:00,77.9,17.0,30.12,NW,309,3.6,6.3,10,0.00,,---,0.00,VWS V14.01,2013-07-09 19:43:00,
2013-07-09 13:44:00,78.1,17.1,30.12,NW,319,2.2,6.3,10,0.00,,---,0.00,VWS V14.01,2013-07-09 19:44:00,
2013-07-09 13:48:00,78.6,17.5,30.12,North,0,5.8,6.3,10,0.00,,---,0.00,VWS V14.01,2013-07-09 19:48:00,
2013-07-09 13:49:00,78.6,17.5,30.12,North,0,4.0,6.3,10,0.00,,---,0.00,VWS V14.01,2013-07-09 19:49:00,
2013-07-09 13:53:00,77.7,16.9,30.12,North,353,3.6,6.7,10,0.00,,---,0.00,VWS V14.01,2013-07-09 19:53:00,
2013-07-09 13:54:00,77.7,16.9,30.12,NNE,17,4.0,6.7,10,0.00,,---,0.00,VWS V14.01,2013-07-09 19:54:00,
2013-07-09 13:58:00,77.7,16.9,30.12,North,357,3.6,6.7,10,0.00,,---,0.00,VWS V14.01,2013-07-09 19:58:00,
2013-07-09 13:59:00,77.9,17.0,30.12,NNW,342,4.0,6.7,10,0.00,,---,0.00,VWS V14.01,2013-07-09 19:59:00,
2013-07-09 14:00:00,77.9,17.0,30.12,North,357,4.9,6.7,10,0.00,,---,0.00,VWS V14.01,2013-07-09 20:00:00,
2013-07-09 14:04:00,78.1,17.1,30.12,WNW,290,4.9,8.1,10,0.00,,---,0.00,VWS V14.01,2013-07-09 20:04:00,
2013-07-09 14:05:00,78.4,17.4,30.12,North,9,7.6,8.1,10,0.00,,---,0.00,VWS V14.01,2013-07-09 20:05:00,
2013-07-09 14:09:00,78.8,17.7,30.12,North,0,5.8,8.1,10,0.00,,---,0.00,VWS V14.01,2013-07-09 20:09:00,
2013-07-09 14:10:00,79.0,17.8,30.12,NNW,345,6.3,8.1,10,0.00,,---,0.00,VWS V14.01,2013-07-09 20:10:00,
2013-07-09 14:11:00,79.0,17.8,30.12,North,353,5.4,8.1,10,0.00,,---,0.00,VWS V14.01,2013-07-09 20:11:00,
2013-07-09 14:14:00,78.3,17.3,30.12,NNW,338,6.3,8.1,10,0.00,,---,0.00,VWS V14.01,2013-07-09 20:14:00,
2013-07-09 14:15:00,78.1,17.1,30.12,North,353,6.3,8.3,10,0.00,,---,0.00,VWS V14.01,2013-07-09 20:15:00,
2013-07-09 14:16:00,77.9,17.0,30.12,North,357,2.7,6.3,10,0.00,,---,0.00,VWS V14.01,2013-07-09 20:16:00,
2013-07-09 14:19:00,77.9,17.0,30.12,North,0,5.8,8.1,10,0.00,,---,0.00,VWS V14.01,2013-07-09 20:19:00,
2013-07-09 14:20:00,77.9,17.0,30.12,NNE,20,6.3,8.3,10,0.00,,---,0.00,VWS V14.01,2013-07-09 20:20:00,
2013-07-09 14:21:00,77.9,17.0,30.12,North,357,4.9,8.3,10,0.00,,---,0.00,VWS V14.01,2013-07-09 20:21:00,
2013-07-09 14:24:00,77.4,16.6,30.12,WSW,243,2.7,8.3,10,0.00,,---,0.00,VWS V14.01,2013-07-09 20:24:00,
2013-07-09 14:25:00,77.4,16.6,30.12,SSW,207,2.7,8.3,10,0.00,,---,0.00,VWS V14.01,2013-07-09 20:25:00,
2013-07-09 14:26:00,77.4,16.6,30.12,North,353,3.6,8.3,10,0.00,,---,0.00,VWS V14.01,2013-07-09 20:26:00,
2013-07-09 14:27:00,77.4,16.6,30.12,NNE,14,6.3,8.3,10,0.00,,---,0.00,VWS V14.01,2013-07-09 20:27:00,
2013-07-09 14:29:00,77.7,11.8,30.12,NE,44,2.2,8.3,8,0.00,,---,0.00,VWS V14.01,2013-07-09 20:29:00,
2013-07-09 14:30:00,77.7,16.9,30.12,NE,46,3.1,3.1,10,0.00,,---,0.00,VWS V14.01,2013-07-09 20:30:00,
2013-07-09 14:31:00,77.9,17.0,30.12,ENE,60,2.7,3.6,10,0.00,,---,0.00,VWS V14.01,2013-07-09 20:31:00,
2013-07-09 14:32:00,77.9,17.0,30.12,NNE,23,3.6,4.0,10,0.00,,---,0.00,VWS V14.01,2013-07-09 20:32:00,
2013-07-09 14:34:00,78.3,17.3,30.12,NE,39,5.4,5.8,10,0.00,,---,0.00,VWS V14.01,2013-07-09 20:34:00,
2013-07-09 14:36:00,78.4,17.4,30.12,NNE,21,6.3,8.1,10,0.00,,---,0.00,VWS V14.01,2013-07-09 20:36:00,
2013-07-09 14:38:00,78.4,17.4,30.12,NE,45,3.6,8.1,10,0.00,,---,0.00,VWS V14.01,2013-07-09 20:38:00,
2013-07-09 14:39:00,78.6,17.5,30.12,NNE,30,3.6,8.1,10,0.00,,---,0.00,VWS V14.01,2013-07-09 20:39:00,
2013-07-09 14:41:00,78.8,17.7,30.12,NNE,20,3.1,8.1,10,0.00,,---,0.00,VWS V14.01,2013-07-09 20:41:00,
2013-07-09 14:42:00,78.8,17.7,30.12,NNE,20,2.7,8.1,10,0.00,,---,0.00,VWS V14.01,2013-07-09 20:42:00,
2013-07-09 14:43:00,78.6,17.5,30.12,East,93,2.7,8.1,10,0.00,,---,0.00,VWS V14.01,2013-07-09 20:43:00,
2013-07-09 14:45:00,78.4,17.4,30.12,North,8,5.4,8.1,10,0.00,,---,0.00,VWS V14.01,2013-07-09 20:45:00,
2013-07-09 14:46:00,78.3,17.3,30.12,NNE,24,6.3,6.3,10,0.00,,---,0.00,VWS V14.01,2013-07-09 20:46:00,
2013-07-09 14:47:00,78.3,17.3,30.12,NNE,24,6.3,6.3,10,0.00,,---,0.00,VWS V14.01,2013-07-09 20:47:00,
2013-07-09 14:48:00,78.3,17.3,30.12,East,98,3.1,6.3,10,0.00,,---,0.00,VWS V14.01,2013-07-09 20:48:00,
2013-07-09 14:50:00,78.3,17.3,30.12,NE,34,3.1,6.3,10,0.00,,---,0.00,VWS V14.01,2013-07-09 20:50:00,
2013-07-09 14:51:00,78.3,17.3,30.12,NNE,12,3.6,6.3,10,0.00,,---,0.00,VWS V14.01,2013-07-09 20:51:00,
2013-07-09 14:52:00,78.4,17.4,30.12,NE,39,3.6,6.3,10,0.00,,---,0.00,VWS V14.01,2013-07-09 20:52:00,
2013-07-09 14:53:00,78.6,17.5,30.12,NE,35,5.4,6.3,10,0.00,,---,0.00,VWS V14.01,2013-07-09 20:53:00,
2013-07-09 14:55:00,78.6,17.5,30.12,NNE,13,8.7,8.7,10,0.00,,---,0.00,VWS V14.01,2013-07-09 20:55:00,
2013-07-09 14:57:00,78.6,17.5,30.12,NE,46,6.3,8.7,10,0.00,,---,0.00,VWS V14.01,2013-07-09 20:57:00,
2013-07-09 14:58:00,78.4,17.4,30.12,NNE,14,3.1,8.7,10,0.00,,---,0.00,VWS V14.01,2013-07-09 20:58:00,
2013-07-09 15:00:00,78.6,17.5,30.12,NE,48,4.0,4.0,10,0.00,,---,0.00,VWS V14.01,2013-07-09 21:00:00,
2013-07-09 15:02:00,78.8,17.7,30.12,East,98,2.7,4.0,10,0.00,,---,0.00,VWS V14.01,2013-07-09 21:02:00,
2013-07-09 15:03:00,79.0,17.8,30.12,East,91,3.1,5.4,10,0.00,,---,0.00,VWS V14.01,2013-07-09 21:03:00,
2013-07-09 15:04:00,79.2,18.0,30.12,East,92,2.7,5.4,10,0.00,,---,0.00,VWS V14.01,2013-07-09 21:04:00,
2013-07-09 15:05:00,79.2,18.0,30.12,East,94,3.6,5.4,10,0.00,,---,0.00,VWS V14.01,2013-07-09 21:05:00,
2013-07-09 15:07:00,79.3,18.1,30.12,NNE,15,3.6,5.8,10,0.00,,---,0.00,VWS V14.01,2013-07-09 21:07:00,
2013-07-09 15:08:00,79.3,18.1,30.12,North,9,3.6,5.8,10,0.00,,---,0.00,VWS V14.01,2013-07-09 21:08:00,
2013-07-09 15:09:00,79.5,18.2,30.12,NNE,25,3.6,5.8,10,0.00,,---,0.00,VWS V14.01,2013-07-09 21:09:00,
2013-07-09 15:10:00,79.5,18.2,30.12,ENE,77,3.1,5.8,10,0.00,,---,0.00,VWS V14.01,2013-07-09 21:10:00,
2013-07-09 15:12:00,79.5,18.2,30.12,East,94,0.0,5.8,10,0.00,,---,0.00,VWS V14.01,2013-07-09 21:12:00,
2013-07-09 15:13:00,79.7,18.4,30.12,North,357,3.6,8.1,10,0.00,,---,0.00,VWS V14.01,2013-07-09 21:13:00,
2013-07-09 15:14:00,79.7,18.4,30.12,East,99,2.2,8.1,10,0.00,,---,0.00,VWS V14.01,2013-07-09 21:14:00,
2013-07-09 15:16:00,79.9,18.5,30.12,ESE,123,3.6,5.4,10,0.00,,---,0.00,VWS V14.01,2013-07-09 21:16:00,
2013-07-09 15:17:00,80.1,18.6,30.12,North,353,6.3,6.3,10,0.00,,---,0.00,VWS V14.01,2013-07-09 21:17:00,
2013-07-09 15:18:00,79.9,18.5,30.12,North,357,5.4,8.3,10,0.00,,---,0.00,VWS V14.01,2013-07-09 21:18:00,
2013-07-09 15:19:00,79.9,18.5,30.12,North,353,4.0,8.3,10,0.00,,---,0.00,VWS V14.01,2013-07-09 21:19:00,
2013-07-09 15:21:00,79.7,18.4,30.12,NNE,33,3.6,8.3,10,0.00,,---,0.00,VWS V14.01,2013-07-09 21:21:00,
2013-07-09 15:22:00,79.5,18.2,30.12,NW,323,4.0,8.3,10,0.00,,---,0.00,VWS V14.01,2013-07-09 21:22:00,
2013-07-09 15:23:00,79.5,18.2,30.12,North,3,5.8,8.3,10,0.00,,---,0.00,VWS V14.01,2013-07-09 21:23:00,
2013-07-09 15:24:00,79.5,18.2,30.12,North,0,4.5,8.3,10,0.00,,---,0.00,VWS V14.01,2013-07-09 21:24:00,
2013-07-09 15:26:00,79.3,18.1,30.12,North,1,4.0,8.3,10,0.00,,---,0.00,VWS V14.01,2013-07-09 21:26:00,
2013-07-09 15:27:00,79.2,9.8,30.12,NNW,344,3.6,8.3,7,0.00,,---,0.00,VWS V14.01,2013-07-09 21:27:00,
2013-07-09 15:29:00,79.0,9.7,30.12,WSW,256,2.7,8.3,7,0.00,,---,0.00,VWS V14.01,2013-07-09 21:29:00,
2013-07-09 15:32:00,79.2,9.8,30.12,NNE,15,2.7,5.4,7,0.00,,---,0.00,VWS V14.01,2013-07-09 21:32:00,
2013-07-09 15:34:00,79.0,9.7,30.12,East,85,2.2,6.7,7,0.00,,---,0.00,VWS V14.01,2013-07-09 21:34:00,
2013-07-09 15:35:00,79.2,9.8,30.12,East,85,2.2,6.7,7,0.00,,---,0.00,VWS V14.01,2013-07-09 21:35:00,
2013-07-09 15:37:00,79.3,10.0,30.12,ESE,117,0.0,6.7,7,0.00,,---,0.00,VWS V14.01,2013-07-09 21:37:00,
2013-07-09 15:40:00,79.7,18.4,30.12,SE,133,2.7,6.7,10,0.00,,---,0.00,VWS V14.01,2013-07-09 21:40:00,
2013-07-09 15:42:00,80.1,10.5,30.12,SE,136,4.9,6.7,7,0.00,,---,0.00,VWS V14.01,2013-07-09 21:42:00,
2013-07-09 15:45:00,80.1,10.5,30.12,East,89,2.7,6.7,7,0.00,,---,0.00,VWS V14.01,2013-07-09 21:45:00,
2013-07-09 15:47:00,80.2,10.6,30.12,North,353,0.0,4.5,7,0.00,,---,0.00,VWS V14.01,2013-07-09 21:47:00,
2013-07-09 15:48:00,80.2,10.6,30.12,NNE,30,2.7,4.5,7,0.00,,---,0.00,VWS V14.01,2013-07-09 21:48:00,
2013-07-09 15:50:00,80.2,10.6,30.12,SE,126,4.0,5.4,7,0.00,,---,0.00,VWS V14.01,2013-07-09 21:50:00,
2013-07-09 15:52:00,80.4,10.8,30.12,SE,124,4.9,5.4,7,0.00,,---,0.00,VWS V14.01,2013-07-09 21:52:00,
2013-07-09 15:53:00,80.4,10.8,30.12,SE,128,4.9,5.4,7,0.00,,---,0.00,VWS V14.01,2013-07-09 21:53:00,
2013-07-09 15:55:00,80.4,10.8,30.12,SSE,155,2.2,5.4,7,0.00,,---,0.00,VWS V14.01,2013-07-09 21:55:00,
2013-07-09 15:57:00,80.4,10.8,30.12,NNE,15,4.0,5.8,7,0.00,,---,0.00,VWS V14.01,2013-07-09 21:57:00,
2013-07-09 15:58:00,80.4,10.8,30.12,NNE,26,5.4,5.8,7,0.00,,---,0.00,VWS V14.01,2013-07-09 21:58:00,
2013-07-09 16:00:00,80.6,10.9,30.12,North,357,3.1,3.1,7,0.00,,---,0.00,VWS V14.01,2013-07-09 22:00:00,
2013-07-09 16:02:00,81.0,11.2,30.12,NNE,22,5.8,7.2,7,0.00,,---,0.00,VWS V14.01,2013-07-09 22:02:00,
2013-07-09 16:03:00,81.1,17.0,30.12,North,357,5.8,7.2,9,0.00,,---,0.00,VWS V14.01,2013-07-09 22:03:00,
2013-07-09 16:05:00,81.3,11.4,30.12,North,357,3.6,7.2,7,0.00,,---,0.00,VWS V14.01,2013-07-09 22:05:00,
2013-07-09 16:06:00,81.3,11.4,30.12,NNE,30,6.3,7.2,7,0.00,,---,0.00,VWS V14.01,2013-07-09 22:06:00,
2013-07-09 16:08:00,81.3,11.4,30.12,NNE,12,5.8,7.2,7,0.00,,---,0.00,VWS V14.01,2013-07-09 22:08:00,
2013-07-09 16:09:00,81.3,11.4,30.12,North,9,3.1,7.2,7,0.00,,---,0.00,VWS V14.01,2013-07-09 22:09:00,
2013-07-09 16:11:00,81.1,11.3,30.12,North,0,2.7,7.2,7,0.00,,---,0.00,VWS V14.01,2013-07-09 22:11:00,
2013-07-09 16:13:00,81.0,11.2,30.12,North,9,4.9,7.2,7,0.00,,---,0.00,VWS V14.01,2013-07-09 22:13:00,
2013-07-09 16:14:00,81.0,11.2,30.12,NW,312,5.4,7.2,7,0.00,,---,0.00,VWS V14.01,2013-07-09 22:14:00,
2013-07-09 16:16:00,81.1,11.3,30.12,NNE,27,3.6,6.3,7,0.00,,---,0.00,VWS V14.01,2013-07-09 22:16:00,
2013-07-09 16:17:00,81.1,11.3,30.12,North,353,5.8,6.3,7,0.00,,---,0.00,VWS V14.01,2013-07-09 22:17:00,
2013-07-09 16:18:00,81.1,11.3,30.12,North,0,4.9,6.3,7,0.00,,---,0.00,VWS V14.01,2013-07-09 22:18:00,
2013-07-09 16:19:00,81.1,11.3,30.12,NNE,33,5.4,6.3,7,0.00,,---,0.00,VWS V14.01,2013-07-09 22:19:00,
2013-07-09 16:21:00,81.1,11.3,30.12,NNE,32,2.2,8.1,7,0.00,,---,0.00,VWS V14.01,2013-07-09 22:21:00,
2013-07-09 16:22:00,81.1,11.3,30.12,North,10,7.2,8.1,7,0.00,,---,0.00,VWS V14.01,2013-07-09 22:22:00,
2013-07-09 16:24:00,81.1,11.3,30.12,ENE,63,2.7,8.1,7,0.00,,---,0.00,VWS V14.01,2013-07-09 22:24:00,
2013-07-09 16:25:00,81.1,11.3,30.12,ESE,112,3.6,8.1,7,0.00,,---,0.00,VWS V14.01,2013-07-09 22:25:00,
2013-07-09 16:26:00,81.1,11.3,30.12,SE,127,3.1,8.1,7,0.00,,---,0.00,VWS V14.01,2013-07-09 22:26:00,
2013-07-09 16:27:00,81.1,11.3,30.12,NNW,344,3.1,8.1,7,0.00,,---,0.00,VWS V14.01,2013-07-09 22:27:00,
2013-07-09 16:29:00,81.5,11.6,30.12,North,357,0.0,8.1,7,0.00,,---,0.00,VWS V14.01,2013-07-09 22:29:00,
2013-07-09 16:30:00,81.7,11.7,30.12,North,357,0.0,2.7,7,0.00,,---,0.00,VWS V14.01,2013-07-09 22:30:00,
2013-07-09 16:31:00,81.7,11.7,30.12,SE,137,4.0,4.0,7,0.00,,---,0.00,VWS V14.01,2013-07-09 22:31:00,
2013-07-09 16:32:00,81.7,11.7,30.12,SE,136,0.0,4.0,7,0.00,,---,0.00,VWS V14.01,2013-07-09 22:32:00,
2013-07-09 16:34:00,82.2,12.1,30.12,NNE,16,4.0,4.0,7,0.00,,---,0.00,VWS V14.01,2013-07-09 22:34:00,
2013-07-09 16:35:00,82.4,8.8,30.12,NNE,13,3.6,5.8,6,0.00,,---,0.00,VWS V14.01,2013-07-09 22:35:00,
2013-07-09 16:37:00,82.2,12.1,30.12,NNE,26,4.0,5.8,7,0.00,,---,0.00,VWS V14.01,2013-07-09 22:37:00,
2013-07-09 16:39:00,81.9,11.8,30.12,North,10,3.6,5.8,7,0.00,,---,0.00,VWS V14.01,2013-07-09 22:39:00,
2013-07-09 16:40:00,81.9,11.8,30.12,NE,36,7.6,7.6,7,0.00,,---,0.00,VWS V14.01,2013-07-09 22:40:00,
2013-07-09 16:42:00,82.0,11.9,30.12,NNE,23,3.1,7.6,7,0.00,,---,0.00,VWS V14.01,2013-07-09 22:42:00,
2013-07-09 16:43:00,82.0,11.9,30.12,NNE,27,5.8,7.6,7,0.00,,---,0.00,VWS V14.01,2013-07-09 22:43:00,
2013-07-09 16:44:00,82.0,11.9,30.12,NNE,21,5.8,8.1,7,0.00,,---,0.00,VWS V14.01,2013-07-09 22:44:00,
2013-07-09 16:46:00,81.9,11.8,30.12,NNE,19,4.9,5.4,7,0.00,,---,0.00,VWS V14.01,2013-07-09 22:46:00,
2013-07-09 16:47:00,81.7,11.7,30.12,NE,37,5.4,5.8,7,0.00,,---,0.00,VWS V14.01,2013-07-09 22:47:00,
2013-07-09 16:48:00,81.7,11.7,30.12,NE,36,3.1,5.8,7,0.00,,---,0.00,VWS V14.01,2013-07-09 22:48:00,
2013-07-09 16:50:00,81.9,11.8,30.12,North,6,2.7,5.8,7,0.00,,---,0.00,VWS V14.01,2013-07-09 22:50:00,
2013-07-09 16:51:00,81.9,11.8,30.12,North,8,2.7,5.8,7,0.00,,---,0.00,VWS V14.01,2013-07-09 22:51:00,
2013-07-09 16:53:00,82.4,8.8,30.12,NNE,32,0.0,5.8,6,0.00,,---,0.00,VWS V14.01,2013-07-09 22:53:00,
2013-07-09 16:55:00,83.1,9.3,30.12,North,357,4.9,5.8,6,0.00,,---,0.00,VWS V14.01,2013-07-09 22:55:00,
2013-07-09 16:56:00,83.1,9.3,30.12,NNE,27,4.0,5.8,6,0.00,,---,0.00,VWS V14.01,2013-07-09 22:56:00,
2013-07-09 16:58:00,83.1,9.3,30.12,NNE,18,5.4,5.8,6,0.00,,---,0.00,VWS V14.01,2013-07-09 22:58:00,
2013-07-09 17:00:00,82.8,9.0,30.12,North,357,4.0,4.0,6,0.00,,---,0.00,VWS V14.01,2013-07-09 23:00:00,
2013-07-09 17:01:00,82.8,9.0,30.12,NNE,29,4.0,4.9,6,0.00,,---,0.00,VWS V14.01,2013-07-09 23:01:00,
2013-07-09 17:03:00,82.6,8.9,30.12,ENE,64,2.2,6.3,6,0.00,,---,0.00,VWS V14.01,2013-07-09 23:03:00,
2013-07-09 17:06:00,82.8,9.0,30.12,SE,128,3.6,6.3,6,0.00,,---,0.00,VWS V14.01,2013-07-09 23:06:00,
2013-07-09 17:08:00,83.5,9.5,30.12,North,6,3.1,6.3,6,0.00,,---,0.00,VWS V14.01,2013-07-09 23:08:00,
2013-07-09 17:09:00,83.5,9.5,30.12,North,3,3.1,6.3,6,0.00,,---,0.00,VWS V14.01,2013-07-09 23:09:00,
2013-07-09 17:11:00,83.7,9.7,30.12,NNE,17,4.0,6.3,6,0.00,,---,0.00,VWS V14.01,2013-07-09 23:11:00,
2013-07-09 17:13:00,84.0,9.9,30.12,East,96,3.1,6.3,6,0.00,,---,0.00,VWS V14.01,2013-07-09 23:13:00,
2013-07-09 17:14:00,84.0,9.9,30.12,East,96,0.0,6.3,6,0.00,,---,0.00,VWS V14.01,2013-07-09 23:14:00,
2013-07-09 17:16:00,84.2,10.1,30.12,NNE,16,3.6,4.0,6,0.00,,---,0.00,VWS V14.01,2013-07-09 23:16:00,
2013-07-09 17:19:00,84.2,10.1,30.12,North,0,2.2,4.0,6,0.00,,---,0.00,VWS V14.01,2013-07-09 23:19:00,
2013-07-09 17:21:00,84.2,10.1,30.12,East,80,0.0,5.8,6,0.00,,---,0.00,VWS V14.01,2013-07-09 23:21:00,
2013-07-09 17:22:00,84.2,10.1,30.12,ESE,112,3.1,5.8,6,0.00,,---,0.00,VWS V14.01,2013-07-09 23:22:00,
2013-07-09 17:24:00,84.4,10.2,30.12,NNE,17,0.0,5.8,6,0.00,,---,0.00,VWS V14.01,2013-07-09 23:24:00,
2013-07-09 17:26:00,84.4,10.2,30.12,NNE,21,3.6,5.8,6,0.00,,---,0.00,VWS V14.01,2013-07-09 23:26:00,
2013-07-09 17:27:00,84.4,10.2,30.12,North,2,3.6,5.8,6,0.00,,---,0.00,VWS V14.01,2013-07-09 23:27:00,
2013-07-09 17:29:00,84.2,10.1,30.12,North,0,6.3,6.3,6,0.00,,---,0.00,VWS V14.01,2013-07-09 23:29:00,
2013-07-09 17:31:00,83.8,9.8,30.12,East,99,2.2,5.8,6,0.00,,---,0.00,VWS V14.01,2013-07-09 23:31:00,
2013-07-09 17:32:00,83.7,9.7,30.12,East,97,2.7,5.8,6,0.00,,---,0.00,VWS V14.01,2013-07-09 23:32:00,
2013-07-09 17:34:00,84.0,9.9,30.12,ENE,58,2.2,5.8,6,0.00,,---,0.00,VWS V14.01,2013-07-09 23:34:00,
2013-07-09 17:36:00,84.4,10.2,30.12,NNE,20,4.0,5.8,6,0.00,,---,0.00,VWS V14.01,2013-07-09 23:36:00,
2013-07-09 17:37:00,84.6,10.3,30.12,North,2,5.8,5.8,6,0.00,,---,0.00,VWS V14.01,2013-07-09 23:37:00,
2013-07-09 17:39:00,84.4,10.2,30.12,ESE,122,5.4,5.8,6,0.00,,---,0.00,VWS V14.01,2013-07-09 23:39:00,
2013-07-09 17:41:00,84.4,10.2,30.12,SE,132,3.1,5.8,6,0.00,,---,0.00,VWS V14.01,2013-07-09 23:41:00,
2013-07-09 17:42:00,84.4,10.2,30.12,ESE,121,3.1,5.8,6,0.00,,---,0.00,VWS V14.01,2013-07-09 23:42:00,
2013-07-09 17:44:00,84.9,10.6,30.12,ESE,102,3.6,5.8,6,0.00,,---,0.00,VWS V14.01,2013-07-09 23:44:00,
2013-07-09 17:46:00,85.1,10.7,30.12,North,353,5.4,5.4,6,0.00,,---,0.00,VWS V14.01,2013-07-09 23:46:00,
2013-07-09 17:48:00,85.1,10.7,30.12,ENE,57,2.2,5.4,6,0.00,,---,0.00,VWS V14.01,2013-07-09 23:48:00,
2013-07-09 17:49:00,84.9,10.6,30.12,NE,34,3.6,5.4,6,0.00,,---,0.00,VWS V14.01,2013-07-09 23:49:00,
2013-07-09 17:50:00,84.9,10.6,30.12,NE,39,2.2,5.4,6,0.00,,---,0.00,VWS V14.01,2013-07-09 23:50:00,
2013-07-09 17:51:00,84.9,10.6,30.12,NE,37,2.7,5.4,6,0.00,,---,0.00,VWS V14.01,2013-07-09 23:51:00,
2013-07-09 17:53:00,85.1,10.7,30.12,East,95,2.7,5.4,6,0.00,,---,0.00,VWS V14.01,2013-07-09 23:53:00,
2013-07-09 17:54:00,85.3,10.8,30.12,SE,131,3.1,5.4,6,0.00,,---,0.00,VWS V14.01,2013-07-09 23:54:00,
2013-07-09 17:55:00,85.5,11.0,30.12,SE,131,3.6,5.4,6,0.00,,---,0.00,VWS V14.01,2013-07-09 23:55:00,
2013-07-09 17:56:00,85.6,11.1,30.12,ESE,120,2.7,5.4,6,0.00,,---,0.00,VWS V14.01,2013-07-09 23:56:00,
2013-07-09 17:58:00,85.8,11.2,30.12,SE,143,2.7,5.4,6,0.00,,---,0.00,VWS V14.01,2013-07-09 23:58:00,
2013-07-09 18:00:00,86.0,11.4,30.12,ESE,106,3.1,3.1,6,0.00,,---,0.00,VWS V14.01,2013-07-10 00:00:00,
2013-07-09 18:01:00,86.0,11.4,30.12,ESE,110,2.7,3.1,6,0.00,,---,0.00,VWS V14.01,2013-07-10 00:01:00,
2013-07-09 18:03:00,86.2,11.5,30.12,ESE,111,3.6,4.9,6,0.00,,---,0.00,VWS V14.01,2013-07-10 00:03:00,
2013-07-09 18:05:00,86.0,11.4,30.12,East,101,2.7,4.9,6,0.00,,---,0.00,VWS V14.01,2013-07-10 00:05:00,
2013-07-09 18:06:00,86.0,11.4,30.12,East,101,3.1,4.9,6,0.00,,---,0.00,VWS V14.01,2013-07-10 00:06:00,
2013-07-09 18:07:00,85.8,11.2,30.12,ENE,77,2.2,4.9,6,0.00,,---,0.00,VWS V14.01,2013-07-10 00:07:00,
2013-07-09 18:09:00,85.6,11.1,30.12,East,100,0.0,4.9,6,0.00,,---,0.00,VWS V14.01,2013-07-10 00:09:00,
2013-07-09 18:11:00,85.5,11.0,30.12,ESE,106,3.6,5.4,6,0.00,,---,0.00,VWS V14.01,2013-07-10 00:11:00,
2013-07-09 18:12:00,85.5,11.0,30.12,ESE,107,2.7,5.4,6,0.00,,---,0.00,VWS V14.01,2013-07-10 00:12:00,
2013-07-09 18:14:00,85.3,10.8,30.12,SE,133,2.7,5.4,6,0.00,,---,0.00,VWS V14.01,2013-07-10 00:14:00,
2013-07-09 18:16:00,85.3,10.8,30.12,ESE,119,4.0,4.0,6,0.00,,---,0.00,VWS V14.01,2013-07-10 00:16:00,
2013-07-09 18:17:00,85.3,10.8,30.12,ESE,121,0.0,4.0,6,0.00,,---,0.00,VWS V14.01,2013-07-10 00:17:00,
2013-07-09 18:19:00,85.1,10.7,30.12,ENE,72,2.2,4.0,6,0.00,,---,0.00,VWS V14.01,2013-07-10 00:19:00,
2013-07-09 18:21:00,84.9,10.6,30.12,ENE,60,2.2,4.0,6,0.00,,---,0.00,VWS V14.01,2013-07-10 00:21:00,
2013-07-09 18:22:00,84.7,10.4,30.12,North,8,3.6,5.4,6,0.00,,---,0.00,VWS V14.01,2013-07-10 00:22:00,
2013-07-09 18:24:00,84.4,10.2,30.12,SE,130,2.2,5.4,6,0.00,,---,0.00,VWS V14.01,2013-07-10 00:24:00,
2013-07-09 18:26:00,84.4,10.2,30.12,East,101,4.0,5.4,6,0.00,,---,0.00,VWS V14.01,2013-07-10 00:26:00,
2013-07-09 18:27:00,84.4,10.2,30.12,ESE,109,4.0,5.4,6,0.00,,---,0.00,VWS V14.01,2013-07-10 00:27:00,
2013-07-09 18:30:00,84.2,10.1,30.12,ESE,104,0.0,5.4,6,0.00,,---,0.00,VWS V14.01,2013-07-10 00:30:00,
2013-07-09 18:31:00,84.2,10.1,30.12,ESE,105,0.0,2.7,6,0.00,,---,0.00,VWS V14.01,2013-07-10 00:31:00,
2013-07-09 18:32:00,84.2,10.1,30.12,ESE,105,0.0,2.7,6,0.00,,---,0.00,VWS V14.01,2013-07-10 00:32:00,
2013-07-09 18:35:00,84.4,10.2,30.12,ESE,108,3.1,4.0,6,0.00,,---,0.00,VWS V14.01,2013-07-10 00:35:00,
2013-07-09 18:37:00,84.4,10.2,30.12,ESE,111,3.1,4.0,6,0.00,,---,0.00,VWS V14.01,2013-07-10 00:37:00,
2013-07-09 18:40:00,84.4,10.2,30.12,ESE,118,0.0,4.0,6,0.00,,---,0.00,VWS V14.01,2013-07-10 00:40:00,
2013-07-09 18:42:00,84.2,10.1,30.12,East,101,3.6,4.0,6,0.00,,---,0.00,VWS V14.01,2013-07-10 00:42:00,
2013-07-09 18:43:00,84.2,10.1,30.12,ESE,118,2.7,4.0,6,0.00,,---,0.00,VWS V14.01,2013-07-10 00:43:00,
2013-07-09 18:45:00,84.0,9.9,30.12,ESE,107,3.1,3.6,6,0.00,,---,0.00,VWS V14.01,2013-07-10 00:45:00,
2013-07-09 18:47:00,84.0,9.9,30.12,SE,135,0.0,3.6,6,0.00,,---,0.00,VWS V14.01,2013-07-10 00:47:00,
2013-07-09 18:48:00,84.0,9.9,30.12,SE,135,2.2,3.6,6,0.00,,---,0.00,VWS V14.01,2013-07-10 00:48:00,
2013-07-09 18:50:00,84.4,10.2,30.12,SE,135,0.0,3.6,6,0.00,,---,0.00,VWS V14.01,2013-07-10 00:50:00,
2013-07-09 18:52:00,84.6,10.3,30.12,East,95,2.2,3.6,6,0.00,,---,0.00,VWS V14.01,2013-07-10 00:52:00,
2013-07-09 18:53:00,84.6,10.3,30.12,ENE,70,0.0,3.6,6,0.00,,---,0.00,VWS V14.01,2013-07-10 00:53:00,
2013-07-09 18:56:00,84.2,10.1,30.12,North,0,4.0,4.0,6,0.00,,---,0.00,VWS V14.01,2013-07-10 00:56:00,
2013-07-09 18:58:00,83.7,9.7,30.12,North,349,0.0,4.0,6,0.00,,---,0.00,VWS V14.01,2013-07-10 00:58:00,
2013-07-09 19:01:00,83.3,9.4,30.12,North,349,0.0,0.0,6,0.00,,---,0.00,VWS V14.01,2013-07-10 01:01:00,
2013-07-09 19:03:00,83.5,9.5,30.12,NNE,15,0.0,2.2,6,0.00,,---,0.00,VWS V14.01,2013-07-10 01:03:00,
2013-07-09 19:04:00,83.5,9.5,30.12,ESE,119,2.7,3.6,6,0.00,,---,0.00,VWS V14.01,2013-07-10 01:04:00,
2013-07-09 19:06:00,83.3,9.4,30.12,ESE,119,0.0,3.6,6,0.00,,---,0.00,VWS V14.01,2013-07-10 01:06:00,
2013-07-09 19:08:00,83.1,9.3,30.12,ESE,114,0.0,3.6,6,0.00,,---,0.00,VWS V14.01,2013-07-10 01:08:00,
2013-07-09 19:09:00,82.9,9.1,30.12,ESE,112,0.0,3.6,6,0.00,,---,0.00,VWS V14.01,2013-07-10 01:09:00,
2013-07-09 19:11:00,82.2,12.1,30.12,ESE,112,0.0,3.6,7,0.00,,---,0.00,VWS V14.01,2013-07-10 01:11:00,
2013-07-09 19:13:00,81.9,11.8,30.12,ESE,112,2.7,3.6,7,0.00,,---,0.00,VWS V14.01,2013-07-10 01:13:00,
2013-07-09 19:14:00,81.7,11.7,30.12,ESE,109,2.2,3.6,7,0.00,,---,0.00,VWS V14.01,2013-07-10 01:14:00,
2013-07-09 19:17:00,81.0,11.2,30.12,ESE,102,2.7,3.1,7,0.00,,---,0.00,VWS V14.01,2013-07-10 01:17:00,
2013-07-09 19:18:00,80.6,10.9,30.12,ESE,102,2.2,3.1,7,0.00,,---,0.00,VWS V14.01,2013-07-10 01:18:00,
2013-07-09 19:19:00,80.4,10.8,30.12,ESE,102,0.0,3.1,7,0.00,,---,0.00,VWS V14.01,2013-07-10 01:19:00,
2013-07-09 19:22:00,79.9,10.4,30.12,ESE,102,0.0,3.1,7,0.00,,---,0.00,VWS V14.01,2013-07-10 01:22:00,
2013-07-09 19:23:00,79.7,10.2,30.12,ESE,102,0.0,3.1,7,0.00,,---,0.00,VWS V14.01,2013-07-10 01:23:00,
2013-07-09 19:24:00,79.7,10.2,30.12,ESE,102,0.0,3.1,7,0.00,,---,0.00,VWS V14.01,2013-07-10 01:24:00,
2013-07-09 19:27:00,79.3,10.0,30.12,North,8,2.7,3.1,7,0.00,,---,0.00,VWS V14.01,2013-07-10 01:27:00,
2013-07-09 19:28:00,79.2,9.8,30.12,North,8,0.0,3.1,7,0.00,,---,0.00,VWS V14.01,2013-07-10 01:28:00,
2013-07-09 19:29:00,79.2,9.8,30.12,North,6,2.2,3.1,7,0.00,,---,0.00,VWS V14.01,2013-07-10 01:29:00,
2013-07-09 19:32:00,79.0,9.7,30.12,NNE,30,0.0,2.7,7,0.00,,---,0.00,VWS V14.01,2013-07-10 01:32:00,
2013-07-09 19:34:00,78.8,9.6,30.12,NE,52,0.0,2.7,7,0.00,,---,0.00,VWS V14.01,2013-07-10 01:34:00,
2013-07-09 19:35:00,78.8,9.6,30.12,NE,52,0.0,2.7,7,0.00,,---,0.00,VWS V14.01,2013-07-10 01:35:00,
2013-07-09 19:37:00,78.6,12.4,30.12,NE,52,0.0,2.7,8,0.00,,---,0.00,VWS V14.01,2013-07-10 01:37:00,
2013-07-09 19:39:00,78.6,12.4,30.12,NE,52,0.0,2.7,8,0.00,,---,0.00,VWS V14.01,2013-07-10 01:39:00,
2013-07-09 19:40:00,78.4,12.3,30.12,NE,52,0.0,2.7,8,0.00,,---,0.00,VWS V14.01,2013-07-10 01:40:00,
2013-07-09 19:42:00,78.4,12.3,30.12,NE,52,0.0,2.7,8,0.00,,---,0.00,VWS V14.01,2013-07-10 01:42:00,
2013-07-09 19:44:00,78.3,12.2,30.12,NE,52,0.0,2.7,8,0.00,,---,0.00,VWS V14.01,2013-07-10 01:44:00,
2013-07-09 19:45:00,78.3,12.2,30.12,NE,52,0.0,0.0,8,0.00,,---,0.00,VWS V14.01,2013-07-10 01:45:00,
2013-07-09 19:46:00,78.3,12.2,30.12,NE,52,0.0,0.0,8,0.00,,---,0.00,VWS V14.01,2013-07-10 01:46:00,
2013-07-09 19:47:00,78.3,12.2,30.12,NE,52,0.0,0.0,8,0.00,,---,0.00,VWS V14.01,2013-07-10 01:47:00,
2013-07-09 19:49:00,78.3,12.2,30.12,NE,52,0.0,0.0,8,0.00,,---,0.00,VWS V14.01,2013-07-10 01:49:00,
2013-07-09 19:50:00,78.1,12.0,30.12,NE,52,0.0,0.0,8,0.00,,---,0.00,VWS V14.01,2013-07-10 01:50:00,
2013-07-09 19:51:00,78.1,12.0,30.12,NE,52,2.2,2.2,8,0.00,,---,0.00,VWS V14.01,2013-07-10 01:51:00,
2013-07-09 19:52:00,78.1,12.0,30.12,NE,52,0.0,2.2,8,0.00,,---,0.00,VWS V14.01,2013-07-10 01:52:00,
2013-07-09 19:54:00,78.1,12.0,30.12,NE,52,0.0,2.2,8,0.00,,---,0.00,VWS V14.01,2013-07-10 01:54:00,
2013-07-09 19:55:00,78.1,12.0,30.12,NE,52,0.0,2.2,8,0.00,,---,0.00,VWS V14.01,2013-07-10 01:55:00,
2013-07-09 19:56:00,78.1,12.0,30.12,NE,52,0.0,2.2,8,0.00,,---,0.00,VWS V14.01,2013-07-10 01:56:00,
2013-07-09 19:57:00,78.1,12.0,30.12,NE,52,0.0,2.2,8,0.00,,---,0.00,VWS V14.01,2013-07-10 01:57:00,
2013-07-09 19:59:00,77.9,11.9,30.12,NE,52,0.0,2.2,8,0.00,,---,0.00,VWS V14.01,2013-07-10 01:59:00,
2013-07-09 20:00:00,77.9,11.9,30.12,NE,52,0.0,0.0,8,0.00,,---,0.00,VWS V14.01,2013-07-10 02:00:00,
2013-07-09 20:01:00,77.9,11.9,30.12,NE,52,0.0,0.0,8,0.00,,---,0.00,VWS V14.01,2013-07-10 02:01:00,
2013-07-09 20:02:00,77.7,11.8,30.12,NE,52,0.0,0.0,8,0.00,,---,0.00,VWS V14.01,2013-07-10 02:02:00,
2013-07-09 20:04:00,77.7,11.8,30.12,NE,52,0.0,0.0,8,0.00,,---,0.00,VWS V14.01,2013-07-10 02:04:00,
2013-07-09 20:06:00,77.5,11.6,30.12,NE,52,0.0,0.0,8,0.00,,---,0.00,VWS V14.01,2013-07-10 02:06:00,
2013-07-09 20:07:00,77.5,11.6,30.12,NE,52,0.0,0.0,8,0.00,,---,0.00,VWS V14.01,2013-07-10 02:07:00,
2013-07-09 20:10:00,77.5,11.6,30.12,NE,40,2.7,2.7,8,0.00,,---,0.00,VWS V14.01,2013-07-10 02:10:00,
2013-07-09 20:11:00,77.5,11.6,30.12,NE,40,0.0,2.7,8,0.00,,---,0.00,VWS V14.01,2013-07-10 02:11:00,
2013-07-09 20:12:00,77.5,11.6,30.12,NE,40,0.0,2.7,8,0.00,,---,0.00,VWS V14.01,2013-07-10 02:12:00,
2013-07-09 20:13:00,77.4,11.5,30.12,NE,40,0.0,2.7,8,0.00,,---,0.00,VWS V14.01,2013-07-10 02:13:00,
2013-07-09 20:15:00,77.4,11.5,30.12,NE,53,2.7,2.7,8,0.00,,---,0.00,VWS V14.01,2013-07-10 02:15:00,
2013-07-09 20:16:00,77.4,11.5,30.12,NE,53,0.0,2.7,8,0.00,,---,0.00,VWS V14.01,2013-07-10 02:16:00,
2013-07-09 20:17:00,77.2,11.4,30.12,NE,53,0.0,2.7,8,0.00,,---,0.00,VWS V14.01,2013-07-10 02:17:00,
2013-07-09 20:18:00,77.2,11.4,30.12,NE,53,0.0,2.7,8,0.00,,---,0.00,VWS V14.01,2013-07-10 02:18:00,
2013-07-09 20:20:00,77.2,11.4,30.12,NE,53,0.0,2.7,8,0.00,,---,0.00,VWS V14.01,2013-07-10 02:20:00,
2013-07-09 20:22:00,77.0,11.2,30.12,NE,53,0.0,2.7,8,0.00,,---,0.00,VWS V14.01,2013-07-10 02:22:00,
2013-07-09 20:23:00,77.0,11.2,30.12,NE,53,0.0,2.7,8,0.00,,---,0.00,VWS V14.01,2013-07-10 02:23:00,
2013-07-09 20:25:00,77.0,11.2,30.12,NE,53,0.0,2.7,8,0.00,,---,0.00,VWS V14.01,2013-07-10 02:25:00,
2013-07-09 20:27:00,76.8,11.1,30.12,NE,53,0.0,2.7,8,0.00,,---,0.00,VWS V14.01,2013-07-10 02:27:00,
2013-07-09 20:28:00,76.8,11.1,30.12,NE,53,0.0,2.7,8,0.00,,---,0.00,VWS V14.01,2013-07-10 02:28:00,
2013-07-09 20:29:00,76.6,11.0,30.12,NE,53,0.0,2.7,8,0.00,,---,0.00,VWS V14.01,2013-07-10 02:29:00,
2013-07-09 20:30:00,76.6,11.0,30.12,NE,53,0.0,0.0,8,0.00,,---,0.00,VWS V14.01,2013-07-10 02:30:00,
2013-07-09 20:32:00,76.6,11.0,30.12,NE,53,0.0,0.0,8,0.00,,---,0.00,VWS V14.01,2013-07-10 02:32:00,
2013-07-09 20:33:00,76.6,11.0,30.12,NE,53,0.0,0.0,8,0.00,,---,0.00,VWS V14.01,2013-07-10 02:33:00,
2013-07-09 20:34:00,76.5,10.8,30.12,NE,53,0.0,0.0,8,0.00,,---,0.00,VWS V14.01,2013-07-10 02:34:00,
2013-07-09 20:36:00,76.3,10.7,30.12,NE,53,0.0,0.0,8,0.00,,---,0.00,VWS V14.01,2013-07-10 02:36:00,
2013-07-09 20:37:00,76.1,10.6,30.12,NE,53,0.0,0.0,8,0.00,,---,0.00,VWS V14.01,2013-07-10 02:37:00,
2013-07-09 20:38:00,76.1,10.6,30.12,NE,43,2.7,2.7,8,0.00,,---,0.00,VWS V14.01,2013-07-10 02:38:00,
2013-07-09 20:39:00,75.9,10.4,30.12,North,357,0.0,3.1,8,0.00,,---,0.00,VWS V14.01,2013-07-10 02:39:00,
2013-07-09 20:40:00,75.9,10.4,30.12,North,357,3.1,3.1,8,0.00,,---,0.00,VWS V14.01,2013-07-10 02:40:00,
2013-07-09 20:41:00,75.9,10.4,30.12,NNW,346,0.0,3.1,8,0.00,,---,0.00,VWS V14.01,2013-07-10 02:41:00,
2013-07-09 20:43:00,75.7,10.3,30.12,North,350,2.7,3.1,8,0.00,,---,0.00,VWS V14.01,2013-07-10 02:43:00,
2013-07-09 20:44:00,75.7,10.3,30.12,North,350,0.0,3.1,8,0.00,,---,0.00,VWS V14.01,2013-07-10 02:44:00,
2013-07-09 20:45:00,75.7,10.3,30.12,North,350,0.0,3.1,8,0.00,,---,0.00,VWS V14.01,2013-07-10 02:45:00,
2013-07-09 20:46:00,75.7,10.3,30.12,North,357,2.2,3.1,8,0.00,,---,0.00,VWS V14.01,2013-07-10 02:46:00,
2013-07-09 20:48:00,75.6,10.2,30.12,North,357,0.0,3.1,8,0.00,,---,0.00,VWS V14.01,2013-07-10 02:48:00,
2013-07-09 20:50:00,75.6,10.2,30.12,North,357,0.0,3.1,8,0.00,,---,0.00,VWS V14.01,2013-07-10 02:50:00,
2013-07-09 20:51:00,75.4,10.0,30.12,North,357,0.0,3.1,8,0.00,,---,0.00,VWS V14.01,2013-07-10 02:51:00,
2013-07-09 20:53:00,75.4,10.0,30.12,North,357,2.7,3.1,8,0.00,,---,0.00,VWS V14.01,2013-07-10 02:53:00,
2013-07-09 20:55:00,75.2,9.9,30.12,North,357,0.0,3.1,8,0.00,,---,0.00,VWS V14.01,2013-07-10 02:55:00,
2013-07-09 20:56:00,75.2,9.9,30.12,North,357,0.0,3.1,8,0.00,,---,0.00,VWS V14.01,2013-07-10 02:56:00,
2013-07-09 20:57:00,75.0,9.8,30.12,North,357,0.0,3.1,8,0.00,,---,0.00,VWS V14.01,2013-07-10 02:57:00,
2013-07-09 20:58:00,75.0,9.8,30.12,North,357,0.0,3.1,8,0.00,,---,0.00,VWS V14.01,2013-07-10 02:58:00,
2013-07-09 20:59:00,75.0,9.8,30.12,North,357,0.0,3.1,8,0.00,,---,0.00,VWS V14.01,2013-07-10 02:59:00,
2013-07-09 21:00:00,74.8,9.6,30.12,North,357,2.7,2.7,8,0.00,,---,0.00,VWS V14.01,2013-07-10 03:00:00,
2013-07-09 21:02:00,74.7,9.5,30.12,North,357,2.2,3.1,8,0.00,,---,0.00,VWS V14.01,2013-07-10 03:02:00,
2013-07-09 21:03:00,74.7,9.5,30.12,North,357,3.1,3.1,8,0.00,,---,0.00,VWS V14.01,2013-07-10 03:03:00,
2013-07-09 21:04:00,74.7,9.5,30.12,North,0,3.1,3.1,8,0.00,,---,0.00,VWS V14.01,2013-07-10 03:04:00,
2013-07-09 21:05:00,74.7,9.5,30.12,North,0,2.2,3.1,8,0.00,,---,0.00,VWS V14.01,2013-07-10 03:05:00,
2013-07-09 21:07:00,74.5,9.4,30.12,North,0,3.1,3.1,8,0.00,,---,0.00,VWS V14.01,2013-07-10 03:07:00,
2013-07-09 21:08:00,74.5,9.4,30.12,North,0,2.2,3.1,8,0.00,,---,0.00,VWS V14.01,2013-07-10 03:08:00,
2013-07-09 21:09:00,74.3,9.2,30.12,North,357,0.0,3.1,8,0.00,,---,0.00,VWS V14.01,2013-07-10 03:09:00,
2013-07-09 21:10:00,74.3,9.2,30.12,North,357,2.2,3.1,8,0.00,,---,0.00,VWS V14.01,2013-07-10 03:10:00,
2013-07-09 21:13:00,73.9,9.0,30.12,North,357,2.2,3.6,8,0.00,,---,0.00,VWS V14.01,2013-07-10 03:13:00,
2013-07-09 21:15:00,73.9,9.0,30.12,North,357,0.0,3.6,8,0.00,,---,0.00,VWS V14.01,2013-07-10 03:15:00,
2013-07-09 21:18:00,73.8,8.8,30.15,North,353,2.7,2.7,8,0.00,,---,0.00,VWS V14.01,2013-07-10 03:18:00,
2013-07-09 21:19:00,73.6,8.7,30.15,North,353,2.2,3.1,8,0.00,,---,0.00,VWS V14.01,2013-07-10 03:19:00,
2013-07-09 21:20:00,73.6,8.7,30.15,North,353,2.2,3.1,8,0.00,,---,0.00,VWS V14.01,2013-07-10 03:20:00,
2013-07-09 21:23:00,73.4,8.6,30.15,North,353,2.2,3.1,8,0.00,,---,0.00,VWS V14.01,2013-07-10 03:23:00,
2013-07-09 21:24:00,73.2,11.1,30.15,North,353,2.2,3.1,9,0.00,,---,0.00,VWS V14.01,2013-07-10 03:24:00,
2013-07-09 21:25:00,73.2,11.1,30.15,North,353,0.0,3.1,9,0.00,,---,0.00,VWS V14.01,2013-07-10 03:25:00,
2013-07-09 21:28:00,72.9,10.8,30.15,North,353,0.0,3.1,9,0.00,,---,0.00,VWS V14.01,2013-07-10 03:28:00,
2013-07-09 21:29:00,72.7,10.6,30.15,North,353,0.0,3.1,9,0.00,,---,0.00,VWS V14.01,2013-07-10 03:29:00,
2013-07-09 21:31:00,72.5,10.5,30.15,North,353,0.0,0.0,9,0.00,,---,0.00,VWS V14.01,2013-07-10 03:31:00,
2013-07-09 21:33:00,72.1,10.2,30.15,North,353,0.0,0.0,9,0.00,,---,0.00,VWS V14.01,2013-07-10 03:33:00,
2013-07-09 21:34:00,72.0,10.1,30.15,North,353,0.0,0.0,9,0.00,,---,0.00,VWS V14.01,2013-07-10 03:34:00,
2013-07-09 21:36:00,71.6,9.8,30.15,North,353,0.0,0.0,9,0.00,,---,0.00,VWS V14.01,2013-07-10 03:36:00,
2013-07-09 21:38:00,71.1,9.4,30.15,North,353,0.0,0.0,9,0.00,,---,0.00,VWS V14.01,2013-07-10 03:38:00,
2013-07-09 21:39:00,71.1,15.9,30.15,North,353,0.0,0.0,12,0.00,,---,0.00,VWS V14.01,2013-07-10 03:39:00,
2013-07-09 21:41:00,70.5,15.5,30.15,North,353,0.0,0.0,12,0.00,,---,0.00,VWS V14.01,2013-07-10 03:41:00,
2013-07-09 21:43:00,70.0,15.1,30.15,NNW,337,0.0,2.7,12,0.00,,---,0.00,VWS V14.01,2013-07-10 03:43:00,
2013-07-09 21:44:00,69.8,14.9,30.15,NNW,337,0.0,2.7,12,0.00,,---,0.00,VWS V14.01,2013-07-10 03:44:00,
2013-07-09 21:45:00,69.8,14.9,30.15,NNW,329,3.1,3.1,12,0.00,,---,0.00,VWS V14.01,2013-07-10 03:45:00,
2013-07-09 21:46:00,69.6,14.8,30.15,SSW,202,4.0,4.0,12,0.00,,---,0.00,VWS V14.01,2013-07-10 03:46:00,
2013-07-09 21:48:00,69.3,14.5,30.15,SSW,196,3.6,4.9,12,0.00,,---,0.00,VWS V14.01,2013-07-10 03:48:00,
2013-07-09 21:50:00,69.1,14.4,30.15,SSW,193,3.1,4.9,12,0.00,,---,0.00,VWS V14.01,2013-07-10 03:50:00,
2013-07-09 21:51:00,68.9,19.4,30.15,SSW,192,3.6,4.9,15,0.00,,---,0.00,VWS V14.01,2013-07-10 03:51:00,
2013-07-09 21:52:00,68.9,19.4,30.15,South,180,2.7,4.9,15,0.00,,---,0.00,VWS V14.01,2013-07-10 03:52:00,
2013-07-09 21:54:00,68.5,19.1,30.15,SSW,194,3.6,4.9,15,0.00,,---,0.00,VWS V14.01,2013-07-10 03:54:00,
2013-07-09 21:55:00,68.5,19.1,30.15,South,190,2.7,4.9,15,0.00,,---,0.00,VWS V14.01,2013-07-10 03:55:00,
2013-07-09 21:56:00,68.4,19.0,30.15,South,191,3.6,4.9,15,0.00,,---,0.00,VWS V14.01,2013-07-10 03:56:00,
2013-07-09 21:57:00,68.2,18.8,30.15,SSW,192,3.6,4.9,15,0.00,,---,0.00,VWS V14.01,2013-07-10 03:57:00,
2013-07-09 21:59:00,68.2,18.8,30.15,SSW,205,4.9,4.9,15,0.00,,---,0.00,VWS V14.01,2013-07-10 03:59:00,
2013-07-09 22:00:00,68.0,21.6,30.15,SSW,193,3.6,3.6,17,0.00,,---,0.00,VWS V14.01,2013-07-10 04:00:00,
2013-07-09 22:01:00,68.0,21.6,30.15,SSW,193,2.7,3.6,17,0.00,,---,0.00,VWS V14.01,2013-07-10 04:01:00,
2013-07-09 22:06:00,67.6,21.3,30.12,SSW,195,3.6,4.9,17,0.00,,---,0.00,VWS V14.01,2013-07-10 04:06:00,
2013-07-09 22:11:00,67.5,21.2,30.12,SSW,200,2.7,4.9,17,0.00,,---,0.00,VWS V14.01,2013-07-10 04:11:00,
2013-07-09 22:16:00,67.3,21.0,30.12,South,189,3.1,3.6,17,0.00,,---,0.00,VWS V14.01,2013-07-10 04:16:00,
2013-07-09 22:17:00,67.3,21.0,30.12,SSW,198,4.0,4.0,17,0.00,,---,0.00,VWS V14.01,2013-07-10 04:17:00,
2013-07-09 22:21:00,66.9,20.7,30.12,SSW,192,3.6,5.4,17,0.00,,---,0.00,VWS V14.01,2013-07-10 04:21:00,
2013-07-09 22:22:00,66.9,20.7,30.12,South,187,4.0,5.4,17,0.00,,---,0.00,VWS V14.01,2013-07-10 04:22:00,
2013-07-09 22:27:00,66.9,20.7,30.12,SSW,193,3.1,6.3,17,0.00,,---,0.00,VWS V14.01,2013-07-10 04:27:00,
2013-07-09 22:32:00,66.6,20.4,30.12,SSW,198,4.9,5.4,17,0.00,,---,0.00,VWS V14.01,2013-07-10 04:32:00,
2013-07-09 22:33:00,66.4,24.1,30.12,SSW,199,7.6,7.6,20,0.00,,---,0.00,VWS V14.01,2013-07-10 04:33:00,
2013-07-09 22:37:00,66.0,23.8,30.12,SSW,195,4.9,7.6,20,0.00,,---,0.00,VWS V14.01,2013-07-10 04:37:00,
2013-07-09 22:38:00,66.0,23.8,30.12,SSW,200,6.3,7.6,20,0.00,,---,0.00,VWS V14.01,2013-07-10 04:38:00,
2013-07-09 22:39:00,65.8,23.7,30.12,SSW,201,4.0,7.6,20,0.00,,---,0.00,VWS V14.01,2013-07-10 04:39:00,
2013-07-09 22:42:00,65.5,23.4,30.12,South,189,6.3,7.6,20,0.00,,---,0.00,VWS V14.01,2013-07-10 04:42:00,
2013-07-09 22:43:00,65.3,23.2,30.12,SSW,197,6.3,7.6,20,0.00,,---,0.00,VWS V14.01,2013-07-10 04:43:00,
2013-07-09 22:44:00,65.1,23.1,30.12,SSW,198,5.8,7.6,20,0.00,,---,0.00,VWS V14.01,2013-07-10 04:44:00,
2013-07-09 22:47:00,65.1,23.1,30.12,SSW,196,6.3,8.1,20,0.00,,---,0.00,VWS V14.01,2013-07-10 04:47:00,
2013-07-09 22:48:00,65.1,23.1,30.12,SSW,194,5.4,8.1,20,0.00,,---,0.00,VWS V14.01,2013-07-10 04:48:00,
2013-07-09 22:49:00,64.9,22.9,30.12,SSW,201,5.4,8.1,20,0.00,,---,0.00,VWS V14.01,2013-07-10 04:49:00,
2013-07-09 22:52:00,64.9,22.9,30.12,SSW,198,6.3,8.1,20,0.00,,---,0.00,VWS V14.01,2013-07-10 04:52:00,
2013-07-09 22:53:00,64.9,22.9,30.12,SSW,195,5.4,8.1,20,0.00,,---,0.00,VWS V14.01,2013-07-10 04:53:00,
2013-07-09 22:54:00,64.9,22.9,30.12,SSW,193,5.4,8.1,20,0.00,,---,0.00,VWS V14.01,2013-07-10 04:54:00,
2013-07-09 22:57:00,64.9,22.9,30.12,SSW,194,6.3,8.1,20,0.00,,---,0.00,VWS V14.01,2013-07-10 04:57:00,
2013-07-09 22:58:00,64.9,22.9,30.12,SSW,207,5.4,8.1,20,0.00,,---,0.00,VWS V14.01,2013-07-10 04:58:00,
2013-07-09 22:59:00,64.9,22.9,30.12,SSW,195,5.8,8.1,20,0.00,,---,0.00,VWS V14.01,2013-07-10 04:59:00,
2013-07-09 23:03:00,64.8,22.8,30.12,SSW,196,5.4,6.3,20,0.00,,---,0.00,VWS V14.01,2013-07-10 05:03:00,
2013-07-09 23:04:00,64.8,20.3,30.12,SSW,202,5.8,6.3,18,0.00,,---,0.00,VWS V14.01,2013-07-10 05:04:00,
2013-07-09 23:05:00,64.8,20.3,30.12,SSW,201,5.8,6.3,18,0.00,,---,0.00,VWS V14.01,2013-07-10 05:05:00,
2013-07-09 23:08:00,64.8,20.3,30.12,South,189,5.4,6.3,18,0.00,,---,0.00,VWS V14.01,2013-07-10 05:08:00,
2013-07-09 23:09:00,64.8,22.8,30.12,SSW,198,5.8,6.3,20,0.00,,---,0.00,VWS V14.01,2013-07-10 05:09:00,
2013-07-09 23:10:00,64.8,20.3,30.12,SSW,198,5.8,6.3,18,0.00,,---,0.00,VWS V14.01,2013-07-10 05:10:00,
2013-07-09 23:13:00,64.6,20.1,30.12,SSW,197,5.4,6.3,18,0.00,,---,0.00,VWS V14.01,2013-07-10 05:13:00,
2013-07-09 23:14:00,64.6,20.1,30.12,SSW,193,5.4,6.3,18,0.00,,---,0.00,VWS V14.01,2013-07-10 05:14:00,
2013-07-09 23:15:00,64.6,20.1,30.12,South,187,5.4,6.3,18,0.00,,---,0.00,VWS V14.01,2013-07-10 05:15:00,
2013-07-09 23:18:00,64.6,20.1,30.12,SSW,198,5.4,5.8,18,0.00,,---,0.00,VWS V14.01,2013-07-10 05:18:00,
2013-07-09 23:19:00,64.6,20.1,30.12,SSW,192,4.0,5.8,18,0.00,,---,0.00,VWS V14.01,2013-07-10 05:19:00,
2013-07-09 23:20:00,64.6,20.1,30.12,SSW,204,3.6,5.8,18,0.00,,---,0.00,VWS V14.01,2013-07-10 05:20:00,
2013-07-09 23:23:00,64.4,20.0,30.12,SSW,198,5.8,7.6,18,0.00,,---,0.00,VWS V14.01,2013-07-10 05:23:00,
2013-07-09 23:24:00,64.4,20.0,30.12,SSW,205,5.8,7.6,18,0.00,,---,0.00,VWS V14.01,2013-07-10 05:24:00,
2013-07-09 23:25:00,64.4,20.0,30.12,SSW,201,5.8,7.6,18,0.00,,---,0.00,VWS V14.01,2013-07-10 05:25:00,
2013-07-09 23:28:00,64.0,23.3,30.12,South,190,5.8,7.6,21,0.00,,---,0.00,VWS V14.01,2013-07-10 05:28:00,
2013-07-09 23:29:00,64.0,19.7,30.12,SSW,197,3.1,7.6,18,0.00,,---,0.00,VWS V14.01,2013-07-10 05:29:00,
2013-07-09 23:30:00,63.9,19.6,30.12,South,186,4.0,4.0,18,0.00,,---,0.00,VWS V14.01,2013-07-10 05:30:00,
2013-07-09 23:31:00,63.9,19.6,30.12,SSW,202,4.0,4.0,18,0.00,,---,0.00,VWS V14.01,2013-07-10 05:31:00,
2013-07-09 23:33:00,63.7,23.0,30.12,SSW,197,4.0,4.0,21,0.00,,---,0.00,VWS V14.01,2013-07-10 05:33:00,
2013-07-09 23:34:00,63.7,19.4,30.12,SSW,195,5.8,5.8,18,0.00,,---,0.00,VWS V14.01,2013-07-10 05:34:00,
2013-07-09 23:36:00,63.7,19.4,30.12,SSW,205,5.8,5.8,18,0.00,,---,0.00,VWS V14.01,2013-07-10 05:36:00,
2013-07-09 23:39:00,63.7,19.4,30.12,SSW,203,5.4,6.3,18,0.00,,---,0.00,VWS V14.01,2013-07-10 05:39:00,
2013-07-09 23:40:00,63.7,19.4,30.12,South,191,4.9,6.3,18,0.00,,---,0.00,VWS V14.01,2013-07-10 05:40:00,
2013-07-09 23:41:00,63.7,19.4,30.12,SSW,200,5.8,6.3,18,0.00,,---,0.00,VWS V14.01,2013-07-10 05:41:00,
2013-07-09 23:44:00,63.7,19.4,30.12,SSW,197,5.8,6.7,18,0.00,,---,0.00,VWS V14.01,2013-07-10 05:44:00,
2013-07-09 23:45:00,63.7,19.4,30.12,SSW,192,4.9,4.9,18,0.00,,---,0.00,VWS V14.01,2013-07-10 05:45:00,
2013-07-09 23:46:00,63.5,19.3,30.12,SSW,200,5.4,5.4,18,0.00,,---,0.00,VWS V14.01,2013-07-10 05:46:00,
2013-07-09 23:49:00,63.5,19.3,30.12,SSW,197,8.1,8.7,18,0.00,,---,0.00,VWS V14.01,2013-07-10 05:49:00,
2013-07-09 23:50:00,63.5,19.3,30.12,SSW,193,8.1,8.7,18,0.00,,---,0.00,VWS V14.01,2013-07-10 05:50:00,
2013-07-09 23:51:00,63.5,19.3,30.12,SSW,204,6.3,8.7,18,0.00,,---,0.00,VWS V14.01,2013-07-10 05:51:00,
2013-07-09 23:52:00,63.5,19.3,30.12,SSW,198,5.8,8.7,18,0.00,,---,0.00,VWS V14.01,2013-07-10 05:52:00,
2013-07-09 23:55:00,63.1,19.0,30.12,South,185,6.3,8.7,18,0.00,,---,0.00,VWS V14.01,2013-07-10 05:55:00,
2013-07-09 23:56:00,63.1,19.0,30.12,SSW,198,7.6,8.7,18,0.00,,---,0.00,VWS V14.01,2013-07-10 05:56:00,
2013-07-09 23:57:00,63.1,19.0,30.12,South,187,7.2,8.7,18,0.00,,---,0.00,VWS V14.01,2013-07-10 05:57:00,